Wetterdaten: Samstag, 30.04.2016
Datum Zeit Temp. Aussen Temp. o. S. +5cm Feuchte Auss BlattFeu 1 Luftdruck Regen Sonnenschein Regendauer Solar Windben Empfang
30.04.2016 00:00 7,1 C 6,7 C 5,0 C 94 % 4 lf 1014,6 hPa 0,0 l/m 0 min 0 min 0 W/m 6,3 km/h (2 Bft) 93,62 %
30.04.2016 00:02 7,1 C 6,7 C 5,0 C 94 % 4 lf 1014,7 hPa 0,0 l/m 0 min 0 min 0 W/m 4,2 km/h (1 Bft) 5,88 %
30.04.2016 00:09 7,1 C 7,2 C 5,0 C 94 % 3 lf 1014,7 hPa 0,0 l/m 0 min 0 min 0 W/m 10,5 km/h (2 Bft) 100,00 %
30.04.2016 00:10 7,1 C 7,2 C 5,0 C 94 % 3 lf 1014,6 hPa 0,0 l/m 0 min 0 min 0 W/m 8,4 km/h (2 Bft) 95,65 %
30.04.2016 00:15 7,1 C 7,2 C 5,0 C 94 % 3 lf 1014,7 hPa 0,0 l/m 0 min 0 min 0 W/m 10,5 km/h (2 Bft) 98,31 %
30.04.2016 00:16 7,1 C 7,2 C 5,0 C 94 % 3 lf 1014,7 hPa 0,0 l/m 0 min 0 min 0 W/m 6,3 km/h (2 Bft) 95,83 %
30.04.2016 00:18 7,1 C 7,2 C 5,0 C 94 % 3 lf 1014,6 hPa 0,0 l/m 0 min 0 min 0 W/m 10,5 km/h (2 Bft) 95,65 %
30.04.2016 00:20 7,1 C 7,2 C 5,0 C 94 % 3 lf 1014,6 hPa 0,0 l/m 0 min 0 min 0 W/m 8,4 km/h (2 Bft) 93,62 %
30.04.2016 00:22 7,1 C 7,2 C 5,0 C 94 % 3 lf 1014,5 hPa 0,0 l/m 0 min 0 min 0 W/m 8,4 km/h (2 Bft) 95,74 %
30.04.2016 00:24 7,1 C 7,2 C 5,6 C 94 % 1 lf 1014,6 hPa 0,0 l/m 0 min 0 min 0 W/m 6,3 km/h (2 Bft) 93,62 %
30.04.2016 00:26 7,1 C 7,2 C 5,6 C 93 % 1 lf 1014,6 hPa 0,0 l/m 0 min 0 min 0 W/m 8,4 km/h (2 Bft) 95,74 %
30.04.2016 00:28 7,1 C 7,2 C 5,6 C 94 % 1 lf 1014,8 hPa 0,0 l/m 0 min 0 min 0 W/m 8,4 km/h (2 Bft) 95,74 %
30.04.2016 00:30 7,1 C 7,2 C 5,6 C 94 % 1 lf 1014,8 hPa 0,0 l/m 0 min 0 min 0 W/m 4,2 km/h (1 Bft) 95,65 %
30.04.2016 00:32 7,1 C 7,2 C 5,6 C 93 % 1 lf 1014,8 hPa 0,0 l/m 0 min 0 min 0 W/m 6,3 km/h (2 Bft) 95,74 %
30.04.2016 00:34 7,1 C 7,2 C 5,6 C 93 % 1 lf 1014,7 hPa 0,0 l/m 0 min 0 min 0 W/m 4,2 km/h (1 Bft) 95,74 %
30.04.2016 00:36 7,1 C 7,2 C 5,6 C 93 % 0 lf 1014,7 hPa 0,0 l/m 0 min 0 min 0 W/m 2,1 km/h (1 Bft) 91,49 %
30.04.2016 00:38 7,1 C 7,2 C 5,6 C 93 % 0 lf 1014,8 hPa 0,0 l/m 0 min 0 min 0 W/m 6,3 km/h (2 Bft) 91,49 %
30.04.2016 00:40 7,1 C 7,2 C 5,6 C 93 % 0 lf 1014,8 hPa 0,0 l/m 0 min 0 min 0 W/m 4,2 km/h (1 Bft) 93,62 %
30.04.2016 00:42 7,1 C 7,2 C 5,6 C 93 % 0 lf 1014,7 hPa 0,0 l/m 0 min 0 min 0 W/m 2,1 km/h (1 Bft) 95,65 %
30.04.2016 00:44 7,1 C 6,7 C 5,6 C 93 % 0 lf 1014,7 hPa 0,0 l/m 0 min 0 min 0 W/m 4,2 km/h (1 Bft) 95,74 %
30.04.2016 00:46 7,1 C 6,7 C 5,6 C 93 % 0 lf 1014,7 hPa 0,0 l/m 0 min 0 min 0 W/m 2,1 km/h (1 Bft) 91,49 %
30.04.2016 00:48 7,1 C 7,2 C 5,6 C 93 % 0 lf 1014,7 hPa 0,0 l/m 0 min 0 min 0 W/m 4,2 km/h (1 Bft) 97,87 %
30.04.2016 00:50 7,1 C 6,7 C 5,0 C 93 % 0 lf 1014,8 hPa 0,0 l/m 0 min 0 min 0 W/m 4,2 km/h (1 Bft) 97,87 %
30.04.2016 00:52 7,1 C 7,2 C 5,0 C 93 % 0 lf 1014,7 hPa 0,0 l/m 0 min 0 min 0 W/m 6,3 km/h (2 Bft) 97,83 %
30.04.2016 00:54 7,1 C 7,2 C 5,0 C 93 % 0 lf 1014,7 hPa 0,0 l/m 0 min 0 min 0 W/m 8,4 km/h (2 Bft) 97,87 %
30.04.2016 00:56 7,1 C 7,2 C 5,0 C 93 % 0 lf 1014,8 hPa 0,0 l/m 0 min 0 min 0 W/m 8,4 km/h (2 Bft) 100,00 %
30.04.2016 00:58 7,1 C 7,2 C 5,0 C 93 % 0 lf 1014,8 hPa 0,0 l/m 0 min 0 min 0 W/m 10,5 km/h (2 Bft) 97,87 %
30.04.2016 01:00 7,0 C 7,2 C 5,0 C 93 % 0 lf 1014,8 hPa 0,0 l/m 0 min 0 min 0 W/m 8,4 km/h (2 Bft) 97,87 %
30.04.2016 01:02 7,0 C 7,2 C 5,0 C 93 % 0 lf 1014,8 hPa 0,0 l/m 0 min 0 min 0 W/m 6,3 km/h (2 Bft) 100,00 %
30.04.2016 01:04 7,0 C 7,2 C 5,0 C 93 % 0 lf 1014,8 hPa 0,0 l/m 0 min 0 min 0 W/m 8,4 km/h (2 Bft) 100,00 %
30.04.2016 01:06 7,0 C 7,2 C 5,0 C 93 % 0 lf 1014,8 hPa 0,0 l/m 0 min 0 min 0 W/m 4,2 km/h (1 Bft) 100,00 %
30.04.2016 01:08 7,0 C 7,2 C 5,6 C 93 % 0 lf 1014,7 hPa 0,0 l/m 0 min 0 min 0 W/m 2,1 km/h (1 Bft) 95,74 %
30.04.2016 01:10 7,0 C 6,7 C 5,6 C 93 % 0 lf 1014,8 hPa 0,0 l/m 0 min 0 min 0 W/m 10,5 km/h (2 Bft) 97,87 %
30.04.2016 01:12 7,0 C 7,2 C 5,6 C 93 % 0 lf 1014,8 hPa 0,0 l/m 0 min 0 min 0 W/m 10,5 km/h (2 Bft) 93,62 %
30.04.2016 01:14 7,0 C 7,2 C 5,6 C 93 % 0 lf 1014,9 hPa 0,0 l/m 0 min 0 min 0 W/m 4,2 km/h (1 Bft) 97,87 %
30.04.2016 01:16 7,0 C 7,2 C 5,6 C 93 % 0 lf 1014,8 hPa 0,0 l/m 0 min 0 min 0 W/m 8,4 km/h (2 Bft) 97,83 %
30.04.2016 01:18 7,0 C 7,2 C 5,6 C 93 % 0 lf 1014,9 hPa 0,0 l/m 0 min 0 min 0 W/m 8,4 km/h (2 Bft) 97,87 %
30.04.2016 01:20 7,0 C 7,2 C 5,6 C 93 % 0 lf 1015,0 hPa 0,0 l/m 0 min 0 min 0 W/m 10,5 km/h (2 Bft) 97,87 %
30.04.2016 01:22 7,0 C 7,2 C 5,6 C 94 % 0 lf 1015,0 hPa 0,0 l/m 0 min 0 min 0 W/m 8,4 km/h (2 Bft) 95,74 %
30.04.2016 01:24 7,0 C 7,2 C 5,6 C 94 % 0 lf 1014,9 hPa 0,0 l/m 0 min 0 min 0 W/m 6,3 km/h (2 Bft) 100,00 %
30.04.2016 01:26 7,0 C 7,2 C 5,6 C 94 % 0 lf 1015,0 hPa 0,0 l/m 0 min 0 min 0 W/m 12,6 km/h (3 Bft) 93,62 %
30.04.2016 01:28 7,0 C 7,2 C 5,6 C 94 % 1 lf 1014,9 hPa 0,0 l/m 0 min 2 min 0 W/m 14,6 km/h (3 Bft) 97,83 %
30.04.2016 01:30 7,0 C 7,2 C 5,6 C 94 % 2 lf 1014,9 hPa 0,0 l/m 0 min 2 min 0 W/m 6,3 km/h (2 Bft) 95,74 %
30.04.2016 01:32 7,0 C 7,2 C 5,6 C 94 % 4 lf 1014,9 hPa 0,0 l/m 0 min 2 min 0 W/m 10,5 km/h (2 Bft) 93,62 %
30.04.2016 01:34 7,0 C 6,7 C 5,6 C 94 % 10 lf 1014,9 hPa 0,0 l/m 0 min 2 min 0 W/m 6,3 km/h (2 Bft) 95,74 %
30.04.2016 01:36 7,0 C 6,7 C 5,6 C 94 % 12 lf 1014,9 hPa 0,0 l/m 0 min 2 min 0 W/m 6,3 km/h (2 Bft) 97,87 %
30.04.2016 01:38 6,9 C 6,7 C 5,6 C 94 % 12 lf 1015,0 hPa 0,0 l/m 0 min 2 min 0 W/m 10,5 km/h (2 Bft) 97,87 %
30.04.2016 01:40 6,9 C 6,7 C 5,6 C 94 % 12 lf 1015,0 hPa 0,0 l/m 0 min 2 min 0 W/m 6,3 km/h (2 Bft) 89,13 %
30.04.2016 01:42 7,0 C 6,7 C 5,6 C 94 % 12 lf 1015,0 hPa 0,0 l/m 0 min 2 min 0 W/m 12,6 km/h (3 Bft) 95,74 %
30.04.2016 01:44 7,0 C 6,7 C 5,6 C 94 % 12 lf 1015,1 hPa 0,0 l/m 0 min 2 min 0 W/m 14,6 km/h (3 Bft) 97,87 %
30.04.2016 01:46 7,0 C 6,7 C 5,6 C 94 % 12 lf 1015,0 hPa 0,0 l/m 0 min 2 min 0 W/m 14,6 km/h (3 Bft) 91,49 %
30.04.2016 01:48 7,0 C 6,7 C 5,6 C 94 % 12 lf 1015,0 hPa 0,0 l/m 0 min 2 min 0 W/m 6,3 km/h (2 Bft) 93,62 %
30.04.2016 01:50 7,0 C 6,7 C 5,6 C 94 % 13 lf 1015,0 hPa 0,0 l/m 0 min 2 min 0 W/m 10,5 km/h (2 Bft) 97,87 %
30.04.2016 01:52 7,0 C 6,7 C 5,6 C 94 % 14 lf 1015,0 hPa 0,0 l/m 0 min 2 min 0 W/m 10,5 km/h (2 Bft) 95,65 %
30.04.2016 01:54 7,0 C 6,7 C 5,6 C 94 % 15 lf 1015,0 hPa 0,0 l/m 0 min 2 min 0 W/m 12,6 km/h (3 Bft) 95,74 %
30.04.2016 01:56 7,0 C 6,7 C 5,6 C 94 % 15 lf 1015,0 hPa 0,0 l/m 0 min 2 min 0 W/m 14,6 km/h (3 Bft) 95,74 %
30.04.2016 01:58 6,9 C 6,7 C 5,6 C 94 % 15 lf 1015,1 hPa 0,0 l/m 0 min 2 min 0 W/m 10,5 km/h (2 Bft) 93,62 %
30.04.2016 02:00 6,9 C 6,7 C 5,6 C 94 % 15 lf 1015,1 hPa 0,0 l/m 0 min 2 min 0 W/m 16,7 km/h (3 Bft) 97,87 %
30.04.2016 02:02 6,9 C 6,7 C 5,6 C 94 % 15 lf 1015,1 hPa 0,0 l/m 0 min 2 min 0 W/m 12,6 km/h (3 Bft) 95,65 %
30.04.2016 02:04 6,9 C 6,7 C 5,0 C 94 % 15 lf 1015,0 hPa 0,0 l/m 0 min 2 min 0 W/m 8,4 km/h (2 Bft) 93,62 %
30.04.2016 02:06 6,9 C 6,7 C 5,0 C 94 % 15 lf 1015,1 hPa 0,0 l/m 0 min 2 min 0 W/m 10,5 km/h (2 Bft) 97,87 %
30.04.2016 02:08 6,9 C 6,1 C 5,0 C 94 % 15 lf 1015,1 hPa 0,0 l/m 0 min 2 min 0 W/m 10,5 km/h (2 Bft) 97,87 %
30.04.2016 02:10 6,9 C 6,1 C 5,0 C 94 % 15 lf 1015,1 hPa 0,0 l/m 0 min 2 min 0 W/m 12,6 km/h (3 Bft) 97,87 %
30.04.2016 02:12 6,9 C 6,1 C 5,0 C 94 % 15 lf 1015,1 hPa 0,0 l/m 0 min 2 min 0 W/m 12,6 km/h (3 Bft) 95,74 %
30.04.2016 02:14 6,9 C 6,1 C 5,0 C 94 % 15 lf 1015,1 hPa 0,0 l/m 0 min 2 min 0 W/m 12,6 km/h (3 Bft) 97,83 %
30.04.2016 02:16 6,9 C 6,1 C 5,0 C 94 % 15 lf 1015,1 hPa 0,0 l/m 0 min 2 min 0 W/m 6,3 km/h (2 Bft) 95,74 %
30.04.2016 02:19 6,8 C 6,1 C 5,0 C 94 % 15 lf 1015,1 hPa 0,0 l/m 0 min 2 min 0 W/m 10,5 km/h (2 Bft) 95,77 %
30.04.2016 02:20 6,8 C 6,1 C 5,0 C 94 % 15 lf 1015,1 hPa 0,0 l/m 0 min 1 min 0 W/m 10,5 km/h (2 Bft) 95,65 %
30.04.2016 02:22 6,8 C 6,1 C 5,0 C 94 % 15 lf 1015,1 hPa 0,0 l/m 0 min 2 min 0 W/m 6,3 km/h (2 Bft) 97,87 %
30.04.2016 02:24 6,8 C 6,1 C 5,0 C 94 % 15 lf 1015,1 hPa 0,0 l/m 0 min 2 min 0 W/m 6,3 km/h (2 Bft) 95,74 %
30.04.2016 02:26 6,8 C 6,1 C 5,0 C 94 % 15 lf 1015,1 hPa 0,0 l/m 0 min 2 min 0 W/m 10,5 km/h (2 Bft) 95,65 %
30.04.2016 02:28 6,8 C 6,1 C 5,0 C 94 % 15 lf 1015,1 hPa 0,0 l/m 0 min 2 min 0 W/m 8,4 km/h (2 Bft) 89,36 %
30.04.2016 02:30 6,8 C 6,1 C 5,0 C 94 % 15 lf 1015,1 hPa 0,0 l/m 0 min 2 min 0 W/m 6,3 km/h (2 Bft) 95,74 %
30.04.2016 02:32 6,8 C 6,1 C 5,0 C 94 % 15 lf 1015,1 hPa 0,0 l/m 0 min 2 min 0 W/m 8,4 km/h (2 Bft) 97,87 %
30.04.2016 02:34 6,8 C 6,1 C 5,0 C 94 % 15 lf 1015,1 hPa 0,0 l/m 0 min 2 min 0 W/m 10,5 km/h (2 Bft) 97,87 %
30.04.2016 02:36 6,7 C 6,1 C 5,0 C 94 % 15 lf 1015,1 hPa 0,0 l/m 0 min 2 min 0 W/m 8,4 km/h (2 Bft) 93,62 %
30.04.2016 02:38 6,7 C 6,1 C 5,0 C 94 % 15 lf 1015,1 hPa 0,0 l/m 0 min 2 min 0 W/m 8,4 km/h (2 Bft) 91,30 %
30.04.2016 02:40 6,7 C 6,1 C 5,0 C 94 % 15 lf 1015,1 hPa 0,0 l/m 0 min 2 min 0 W/m 6,3 km/h (2 Bft) 97,87 %
30.04.2016 02:42 6,7 C 6,1 C 5,0 C 94 % 15 lf 1015,1 hPa 0,0 l/m 0 min 2 min 0 W/m 8,4 km/h (2 Bft) 97,87 %
30.04.2016 02:44 6,7 C 6,1 C 5,0 C 94 % 15 lf 1015,1 hPa 0,0 l/m 0 min 2 min 0 W/m 8,4 km/h (2 Bft) 95,74 %
30.04.2016 02:46 6,7 C 6,1 C 5,0 C 94 % 15 lf 1015,1 hPa 0,0 l/m 0 min 2 min 0 W/m 6,3 km/h (2 Bft) 95,74 %
30.04.2016 02:48 6,7 C 6,1 C 5,0 C 94 % 15 lf 1015,1 hPa 0,0 l/m 0 min 2 min 0 W/m 4,2 km/h (1 Bft) 95,74 %
30.04.2016 02:50 6,7 C 6,1 C 5,0 C 94 % 15 lf 1015,1 hPa 0,0 l/m 0 min 2 min 0 W/m 4,2 km/h (1 Bft) 95,65 %
30.04.2016 02:52 6,6 C 6,1 C 5,0 C 94 % 15 lf 1015,1 hPa 0,0 l/m 0 min 2 min 0 W/m 6,3 km/h (2 Bft) 91,49 %
30.04.2016 02:54 6,6 C 6,1 C 5,0 C 94 % 15 lf 1015,1 hPa 0,0 l/m 0 min 2 min 0 W/m 6,3 km/h (2 Bft) 93,62 %
30.04.2016 02:56 6,6 C 6,1 C 5,0 C 94 % 15 lf 1015,1 hPa 0,0 l/m 0 min 2 min 0 W/m 4,2 km/h (1 Bft) 91,49 %
30.04.2016 02:58 6,6 C 6,1 C 5,0 C 94 % 15 lf 1015,1 hPa 0,0 l/m 0 min 2 min 0 W/m 2,1 km/h (1 Bft) 95,74 %
30.04.2016 03:00 6,6 C 6,1 C 5,0 C 94 % 15 lf 1015,1 hPa 0,0 l/m 0 min 2 min 0 W/m 2,1 km/h (1 Bft) 95,74 %
30.04.2016 03:02 6,6 C 6,1 C 5,0 C 94 % 15 lf 1015,1 hPa 0,0 l/m 0 min 2 min 0 W/m 4,2 km/h (1 Bft) 93,48 %
30.04.2016 03:04 6,6 C 6,1 C 5,0 C 94 % 15 lf 1015,0 hPa 0,0 l/m 0 min 2 min 0 W/m 4,2 km/h (1 Bft) 93,62 %
30.04.2016 03:06 6,5 C 6,1 C 5,0 C 94 % 15 lf 1015,1 hPa 0,0 l/m 0 min 2 min 0 W/m 6,3 km/h (2 Bft) 93,62 %
30.04.2016 03:08 6,5 C 6,1 C 5,0 C 94 % 15 lf 1015,0 hPa 0,0 l/m 0 min 2 min 0 W/m 2,1 km/h (1 Bft) 91,49 %
30.04.2016 03:10 6,5 C 6,1 C 5,0 C 94 % 15 lf 1015,1 hPa 0,0 l/m 0 min 2 min 0 W/m 4,2 km/h (1 Bft) 87,23 %
30.04.2016 03:12 6,5 C 6,1 C 5,0 C 94 % 15 lf 1015,1 hPa 0,0 l/m 0 min 2 min 0 W/m 4,2 km/h (1 Bft) 91,49 %
30.04.2016 03:14 6,5 C 6,1 C 5,0 C 94 % 15 lf 1015,1 hPa 0,0 l/m 0 min 2 min 0 W/m 4,2 km/h (1 Bft) 93,48 %
30.04.2016 03:16 6,5 C 6,1 C 5,0 C 94 % 15 lf 1015,1 hPa 0,0 l/m 0 min 2 min 0 W/m 6,3 km/h (2 Bft) 93,62 %
30.04.2016 03:18 6,4 C 6,1 C 5,0 C 94 % 15 lf 1015,1 hPa 0,0 l/m 0 min 2 min 0 W/m 4,2 km/h (1 Bft) 91,49 %
30.04.2016 03:20 6,4 C 6,1 C 5,0 C 94 % 15 lf 1015,1 hPa 0,0 l/m 0 min 0 min 0 W/m 4,2 km/h (1 Bft) 91,49 %
30.04.2016 03:22 6,4 C 6,1 C 5,0 C 94 % 15 lf 1015,2 hPa 0,0 l/m 0 min 0 min 0 W/m 4,2 km/h (1 Bft) 89,80 %
30.04.2016 03:24 6,4 C 6,1 C 5,0 C 94 % 15 lf 1015,1 hPa 0,0 l/m 0 min 0 min 0 W/m 4,2 km/h (1 Bft) 91,30 %
30.04.2016 03:26 6,4 C 6,1 C 5,0 C 94 % 15 lf 1015,1 hPa 0,0 l/m 0 min 2 min 0 W/m 2,1 km/h (1 Bft) 93,62 %
30.04.2016 03:28 6,4 C 6,1 C 5,0 C 94 % 15 lf 1015,1 hPa 0,0 l/m 0 min 2 min 0 W/m 0,0 km/h (0 Bft) 93,62 %
30.04.2016 03:30 6,4 C 6,1 C 5,0 C 94 % 15 lf 1015,1 hPa 0,0 l/m 0 min 2 min 0 W/m 0,0 km/h (0 Bft) 93,62 %
30.04.2016 03:32 6,4 C 6,1 C 5,0 C 94 % 15 lf 1015,1 hPa 0,0 l/m 0 min 2 min 0 W/m 0,0 km/h (0 Bft) 97,87 %
30.04.2016 03:34 6,4 C 6,1 C 5,0 C 94 % 15 lf 1015,1 hPa 0,0 l/m 0 min 2 min 0 W/m 0,0 km/h (0 Bft) 97,87 %
30.04.2016 03:36 6,4 C 6,1 C 5,0 C 94 % 15 lf 1015,2 hPa 0,0 l/m 0 min 2 min 0 W/m 0,0 km/h (0 Bft) 97,83 %
30.04.2016 03:38 6,4 C 6,1 C 5,0 C 94 % 15 lf 1015,2 hPa 0,0 l/m 0 min 0 min 0 W/m 0,0 km/h (0 Bft) 93,62 %
30.04.2016 03:40 6,4 C 6,1 C 5,0 C 94 % 15 lf 1015,2 hPa 0,0 l/m 0 min 0 min 0 W/m 0,0 km/h (0 Bft) 97,87 %
30.04.2016 03:42 6,4 C 6,1 C 5,0 C 94 % 15 lf 1015,2 hPa 0,0 l/m 0 min 2 min 0 W/m 0,0 km/h (0 Bft) 97,87 %
30.04.2016 03:44 6,4 C 6,1 C 5,0 C 94 % 15 lf 1015,3 hPa 0,0 l/m 0 min 2 min 0 W/m 0,0 km/h (0 Bft) 97,87 %
30.04.2016 03:46 6,4 C 6,1 C 5,0 C 94 % 15 lf 1015,2 hPa 0,0 l/m 0 min 2 min 0 W/m 0,0 km/h (0 Bft) 87,23 %
30.04.2016 03:48 6,4 C 6,1 C 5,0 C 94 % 15 lf 1015,3 hPa 0,0 l/m 0 min 2 min 0 W/m 0,0 km/h (0 Bft) 97,83 %
30.04.2016 03:50 6,4 C 6,1 C 5,0 C 94 % 15 lf 1015,3 hPa 0,0 l/m 0 min 2 min 0 W/m 0,0 km/h (0 Bft) 95,74 %
30.04.2016 03:52 6,4 C 6,1 C 5,0 C 94 % 15 lf 1015,3 hPa 0,0 l/m 0 min 2 min 0 W/m 0,0 km/h (0 Bft) 95,74 %
30.04.2016 03:54 6,4 C 6,1 C 5,0 C 94 % 15 lf 1015,3 hPa 0,0 l/m 0 min 2 min 0 W/m 0,0 km/h (0 Bft) 97,87 %
30.04.2016 03:56 6,4 C 6,1 C 5,0 C 94 % 15 lf 1015,3 hPa 0,0 l/m 0 min 2 min 0 W/m 0,0 km/h (0 Bft) 93,62 %
30.04.2016 03:58 6,4 C 6,1 C 5,0 C 94 % 15 lf 1015,3 hPa 0,0 l/m 0 min 2 min 0 W/m 0,0 km/h (0 Bft) 100,00 %
30.04.2016 04:00 6,3 C 6,1 C 5,0 C 94 % 15 lf 1015,4 hPa 0,0 l/m 0 min 2 min 0 W/m 0,0 km/h (0 Bft) 97,83 %
30.04.2016 04:02 6,3 C 6,1 C 5,0 C 94 % 15 lf 1015,4 hPa 0,0 l/m 0 min 2 min 0 W/m 0,0 km/h (0 Bft) 96,30 %
30.04.2016 04:04 6,3 C 6,1 C 5,0 C 94 % 15 lf 1015,3 hPa 0,0 l/m 0 min 2 min 0 W/m 0,0 km/h (0 Bft) 100,00 %
30.04.2016 04:06 6,3 C 6,1 C 5,0 C 94 % 15 lf 1015,3 hPa 0,0 l/m 0 min 2 min 0 W/m 0,0 km/h (0 Bft) 95,74 %
30.04.2016 04:08 6,3 C 6,1 C 5,0 C 94 % 15 lf 1015,3 hPa 0,0 l/m 0 min 2 min 0 W/m 0,0 km/h (0 Bft) 100,00 %
30.04.2016 04:10 6,3 C 6,1 C 5,0 C 94 % 15 lf 1015,2 hPa 0,0 l/m 0 min 2 min 0 W/m 0,0 km/h (0 Bft) 100,00 %
30.04.2016 04:12 6,3 C 6,1 C 5,0 C 94 % 15 lf 1015,3 hPa 0,0 l/m 0 min 2 min 0 W/m 0,0 km/h (0 Bft) 100,00 %
30.04.2016 04:14 6,3 C 6,1 C 5,0 C 94 % 15 lf 1015,4 hPa 0,0 l/m 0 min 2 min 0 W/m 0,0 km/h (0 Bft) 100,00 %
30.04.2016 04:16 6,3 C 6,1 C 5,0 C 94 % 15 lf 1015,4 hPa 0,0 l/m 0 min 2 min 0 W/m 0,0 km/h (0 Bft) 100,00 %
30.04.2016 04:18 6,3 C 6,1 C 5,0 C 94 % 15 lf 1015,4 hPa 0,0 l/m 0 min 2 min 0 W/m 0,0 km/h (0 Bft) 100,00 %
30.04.2016 04:20 6,3 C 6,1 C 5,0 C 94 % 15 lf 1015,4 hPa 0,0 l/m 0 min 2 min 0 W/m 0,0 km/h (0 Bft) 97,87 %
30.04.2016 04:22 6,3 C 6,1 C 5,0 C 94 % 15 lf 1015,4 hPa 0,0 l/m 0 min 2 min 0 W/m 0,0 km/h (0 Bft) 97,83 %
30.04.2016 04:24 6,2 C 6,1 C 5,0 C 94 % 15 lf 1015,4 hPa 0,0 l/m 0 min 2 min 0 W/m 0,0 km/h (0 Bft) 97,87 %
30.04.2016 04:26 6,2 C 6,1 C 5,0 C 94 % 15 lf 1015,4 hPa 0,0 l/m 0 min 2 min 0 W/m 0,0 km/h (0 Bft) 95,74 %
30.04.2016 04:28 6,2 C 6,1 C 5,0 C 94 % 15 lf 1015,5 hPa 0,0 l/m 0 min 2 min 0 W/m 0,0 km/h (0 Bft) 95,74 %
30.04.2016 04:30 6,2 C 6,1 C 5,0 C 94 % 15 lf 1015,5 hPa 0,0 l/m 0 min 2 min 0 W/m 0,0 km/h (0 Bft) 100,00 %
30.04.2016 04:32 6,2 C 6,1 C 5,0 C 94 % 15 lf 1015,4 hPa 0,0 l/m 0 min 2 min 0 W/m 0,0 km/h (0 Bft) 93,62 %
30.04.2016 04:34 6,2 C 6,1 C 5,0 C 94 % 15 lf 1015,4 hPa 0,0 l/m 0 min 2 min 0 W/m 0,0 km/h (0 Bft) 100,00 %
30.04.2016 04:36 6,2 C 6,1 C 5,0 C 94 % 15 lf 1015,4 hPa 0,0 l/m 0 min 2 min 0 W/m 0,0 km/h (0 Bft) 97,87 %
30.04.2016 04:38 6,2 C 6,1 C 5,0 C 94 % 15 lf 1015,5 hPa 0,0 l/m 0 min 2 min 0 W/m 0,0 km/h (0 Bft) 100,00 %
30.04.2016 04:40 6,2 C 6,1 C 5,0 C 94 % 15 lf 1015,5 hPa 0,0 l/m 0 min 2 min 0 W/m 0,0 km/h (0 Bft) 100,00 %
30.04.2016 04:42 6,2 C 6,1 C 5,0 C 94 % 15 lf 1015,5 hPa 0,0 l/m 0 min 2 min 0 W/m 0,0 km/h (0 Bft) 97,87 %
30.04.2016 04:44 6,2 C 6,1 C 5,0 C 94 % 15 lf 1015,5 hPa 0,0 l/m 0 min 2 min 0 W/m 0,0 km/h (0 Bft) 100,00 %
30.04.2016 04:46 6,2 C 5,6 C 5,0 C 94 % 15 lf 1015,5 hPa 0,0 l/m 0 min 2 min 0 W/m 0,0 km/h (0 Bft) 100,00 %
30.04.2016 04:48 6,2 C 5,6 C 5,0 C 94 % 15 lf 1015,5 hPa 0,0 l/m 0 min 2 min 0 W/m 0,0 km/h (0 Bft) 95,74 %
30.04.2016 04:50 6,2 C 5,6 C 5,0 C 94 % 15 lf 1015,5 hPa 0,0 l/m 0 min 2 min 0 W/m 0,0 km/h (0 Bft) 97,87 %
30.04.2016 04:52 6,2 C 5,6 C 5,0 C 94 % 15 lf 1015,5 hPa 0,0 l/m 0 min 2 min 0 W/m 0,0 km/h (0 Bft) 97,87 %
30.04.2016 04:54 6,2 C 5,6 C 5,0 C 94 % 15 lf 1015,5 hPa 0,0 l/m 0 min 2 min 0 W/m 0,0 km/h (0 Bft) 97,87 %
30.04.2016 04:56 6,2 C 5,6 C 5,0 C 94 % 15 lf 1015,4 hPa 0,0 l/m 0 min 2 min 0 W/m 0,0 km/h (0 Bft) 93,62 %
30.04.2016 04:58 6,2 C 5,6 C 5,0 C 94 % 15 lf 1015,4 hPa 0,0 l/m 0 min 2 min 0 W/m 0,0 km/h (0 Bft) 97,83 %
30.04.2016 05:00 6,2 C 5,6 C 5,0 C 94 % 15 lf 1015,5 hPa 0,0 l/m 0 min 2 min 0 W/m 0,0 km/h (0 Bft) 97,87 %
30.04.2016 05:02 6,2 C 5,6 C 5,0 C 94 % 15 lf 1015,5 hPa 0,0 l/m 0 min 2 min 0 W/m 0,0 km/h (0 Bft) 97,87 %
30.04.2016 05:04 6,2 C 5,6 C 5,0 C 94 % 15 lf 1015,5 hPa 0,0 l/m 0 min 2 min 0 W/m 0,0 km/h (0 Bft) 97,87 %
30.04.2016 05:06 6,2 C 5,6 C 5,0 C 94 % 15 lf 1015,6 hPa 0,0 l/m 0 min 2 min 0 W/m 0,0 km/h (0 Bft) 93,62 %
30.04.2016 05:07 6,2 C 5,6 C 5,0 C 94 % 15 lf 1015,5 hPa 0,0 l/m 0 min 1 min 0 W/m 0,0 km/h (0 Bft) 100,00 %
30.04.2016 05:08 6,2 C 5,6 C 5,0 C 94 % 15 lf 1015,6 hPa 0,0 l/m 0 min 1 min 0 W/m 0,0 km/h (0 Bft) 95,65 %
30.04.2016 05:09 6,2 C 5,6 C 5,0 C 94 % 15 lf 1015,5 hPa 0,0 l/m 0 min 1 min 0 W/m 0,0 km/h (0 Bft) 100,00 %
30.04.2016 05:10 6,1 C 5,6 C 5,0 C 94 % 15 lf 1015,6 hPa 0,0 l/m 0 min 1 min 0 W/m 0,0 km/h (0 Bft) 95,65 %
30.04.2016 05:11 6,2 C 5,6 C 5,0 C 94 % 15 lf 1015,6 hPa 0,0 l/m 0 min 1 min 0 W/m 0,0 km/h (0 Bft) 100,00 %
30.04.2016 05:12 6,2 C 5,6 C 5,0 C 94 % 15 lf 1015,5 hPa 0,0 l/m 0 min 1 min 0 W/m 0,0 km/h (0 Bft) 100,00 %
30.04.2016 05:13 6,1 C 5,6 C 5,0 C 94 % 15 lf 1015,6 hPa 0,0 l/m 0 min 1 min 0 W/m 0,0 km/h (0 Bft) 100,00 %
30.04.2016 05:14 6,1 C 5,6 C 5,0 C 94 % 15 lf 1015,6 hPa 0,0 l/m 0 min 1 min 0 W/m 0,0 km/h (0 Bft) 95,65 %
30.04.2016 05:15 6,1 C 5,6 C 5,0 C 94 % 15 lf 1015,6 hPa 0,0 l/m 0 min 1 min 0 W/m 0,0 km/h (0 Bft) 100,00 %
30.04.2016 05:16 6,1 C 5,6 C 5,0 C 94 % 15 lf 1015,7 hPa 0,0 l/m 0 min 1 min 0 W/m 0,0 km/h (0 Bft) 97,88 %
30.04.2016 05:18 6,1 C 5,6 C 5,0 C 95 % 15 lf 1015,7 hPa 0,0 l/m 0 min 2 min 0 W/m 0,0 km/h (0 Bft) 98,31 %
30.04.2016 05:20 6,1 C 5,6 C 5,0 C 95 % 15 lf 1015,6 hPa 0,0 l/m 0 min 2 min 0 W/m 0,0 km/h (0 Bft) 97,87 %
30.04.2016 05:22 6,1 C 5,6 C 5,0 C 95 % 15 lf 1015,6 hPa 0,0 l/m 0 min 2 min 0 W/m 0,0 km/h (0 Bft) 100,00 %
30.04.2016 05:24 6,1 C 5,6 C 5,0 C 95 % 15 lf 1015,7 hPa 0,0 l/m 0 min 2 min 0 W/m 0,0 km/h (0 Bft) 97,87 %
30.04.2016 05:26 6,1 C 5,6 C 5,0 C 95 % 15 lf 1015,7 hPa 0,0 l/m 0 min 2 min 0 W/m 0,0 km/h (0 Bft) 97,83 %
30.04.2016 05:28 6,1 C 5,6 C 5,0 C 95 % 15 lf 1015,7 hPa 0,0 l/m 0 min 2 min 0 W/m 0,0 km/h (0 Bft) 97,87 %
30.04.2016 05:30 6,1 C 5,6 C 5,0 C 95 % 15 lf 1015,7 hPa 0,0 l/m 0 min 2 min 0 W/m 0,0 km/h (0 Bft) 93,62 %
30.04.2016 05:32 6,1 C 5,6 C 5,0 C 95 % 15 lf 1015,7 hPa 0,0 l/m 0 min 2 min 0 W/m 0,0 km/h (0 Bft) 97,87 %
30.04.2016 05:34 6,1 C 5,6 C 5,0 C 95 % 15 lf 1015,7 hPa 0,0 l/m 0 min 2 min 0 W/m 0,0 km/h (0 Bft) 97,87 %
30.04.2016 05:36 6,1 C 5,6 C 5,0 C 95 % 15 lf 1015,7 hPa 0,0 l/m 0 min 2 min 0 W/m 0,0 km/h (0 Bft) 93,62 %
30.04.2016 05:38 6,1 C 5,6 C 5,0 C 95 % 15 lf 1015,7 hPa 0,0 l/m 0 min 2 min 0 W/m 0,0 km/h (0 Bft) 95,65 %
30.04.2016 05:40 6,1 C 5,6 C 5,0 C 95 % 15 lf 1015,7 hPa 0,0 l/m 0 min 2 min 0 W/m 0,0 km/h (0 Bft) 97,87 %
30.04.2016 05:42 6,1 C 5,6 C 5,0 C 95 % 15 lf 1015,8 hPa 0,0 l/m 0 min 2 min 0 W/m 4,2 km/h (1 Bft) 97,87 %
30.04.2016 05:44 6,1 C 5,6 C 5,0 C 95 % 15 lf 1015,7 hPa 0,0 l/m 0 min 2 min 0 W/m 4,2 km/h (1 Bft) 95,74 %
30.04.2016 05:46 6,1 C 5,6 C 5,0 C 95 % 15 lf 1015,8 hPa 0,0 l/m 0 min 2 min 0 W/m 4,2 km/h (1 Bft) 97,87 %
30.04.2016 05:48 6,1 C 5,6 C 5,0 C 95 % 15 lf 1015,8 hPa 0,0 l/m 0 min 2 min 0 W/m 6,3 km/h (2 Bft) 95,74 %
30.04.2016 05:50 6,1 C 5,6 C 5,0 C 95 % 15 lf 1015,9 hPa 0,0 l/m 0 min 2 min 0 W/m 4,2 km/h (1 Bft) 97,83 %
30.04.2016 05:52 6,1 C 5,6 C 5,0 C 95 % 15 lf 1015,8 hPa 0,0 l/m 0 min 2 min 0 W/m 4,2 km/h (1 Bft) 92,00 %
30.04.2016 05:54 6,1 C 5,6 C 5,0 C 95 % 15 lf 1015,9 hPa 0,0 l/m 0 min 2 min 0 W/m 4,2 km/h (1 Bft) 97,87 %
30.04.2016 05:56 6,1 C 5,6 C 5,0 C 95 % 15 lf 1015,8 hPa 0,0 l/m 0 min 2 min 0 W/m 2,1 km/h (1 Bft) 91,49 %
30.04.2016 05:58 6,1 C 5,6 C 5,0 C 95 % 15 lf 1015,8 hPa 0,0 l/m 0 min 2 min 0 W/m 2,1 km/h (1 Bft) 93,62 %
30.04.2016 06:00 6,1 C 5,6 C 5,0 C 95 % 15 lf 1015,9 hPa 0,0 l/m 0 min 2 min 0 W/m 4,2 km/h (1 Bft) 93,62 %
30.04.2016 06:02 6,1 C 5,6 C 5,0 C 95 % 15 lf 1015,9 hPa 0,0 l/m 0 min 2 min 0 W/m 4,2 km/h (1 Bft) 94,59 %
30.04.2016 06:04 6,1 C 5,6 C 5,0 C 95 % 15 lf 1015,9 hPa 0,0 l/m 0 min 2 min 0 W/m 6,3 km/h (2 Bft) 91,49 %
30.04.2016 06:06 6,1 C 5,6 C 5,0 C 95 % 15 lf 1015,9 hPa 0,0 l/m 0 min 2 min 0 W/m 6,3 km/h (2 Bft) 91,49 %
30.04.2016 06:08 6,1 C 5,6 C 5,0 C 95 % 15 lf 1015,9 hPa 0,0 l/m 0 min 2 min 0 W/m 4,2 km/h (1 Bft) 93,62 %
30.04.2016 06:10 6,1 C 5,6 C 5,0 C 95 % 15 lf 1015,9 hPa 0,0 l/m 0 min 2 min 0 W/m 4,2 km/h (1 Bft) 93,48 %
30.04.2016 06:12 6,1 C 5,6 C 5,0 C 95 % 15 lf 1015,9 hPa 0,0 l/m 0 min 2 min 0 W/m 4,2 km/h (1 Bft) 92,59 %
30.04.2016 06:14 6,1 C 5,6 C 5,0 C 95 % 15 lf 1015,9 hPa 0,0 l/m 0 min 2 min 0 W/m 6,3 km/h (2 Bft) 95,65 %
30.04.2016 06:16 6,1 C 5,6 C 5,0 C 95 % 15 lf 1015,9 hPa 0,0 l/m 0 min 2 min 0 W/m 4,2 km/h (1 Bft) 95,74 %
30.04.2016 06:18 6,1 C 5,6 C 5,0 C 95 % 15 lf 1015,8 hPa 0,0 l/m 0 min 2 min 2 W/m 6,3 km/h (2 Bft) 93,62 %
30.04.2016 06:20 6,1 C 5,6 C 5,0 C 95 % 15 lf 1015,9 hPa 0,0 l/m 0 min 2 min 5 W/m 2,1 km/h (1 Bft) 95,74 %
30.04.2016 06:22 6,1 C 5,6 C 5,0 C 95 % 15 lf 1015,9 hPa 0,0 l/m 0 min 2 min 5 W/m 4,2 km/h (1 Bft) 93,62 %
30.04.2016 06:24 6,1 C 5,6 C 5,0 C 95 % 15 lf 1016,0 hPa 0,0 l/m 0 min 2 min 6 W/m 4,2 km/h (1 Bft) 95,74 %
30.04.2016 06:26 6,1 C 5,6 C 5,0 C 95 % 15 lf 1016,0 hPa 0,0 l/m 0 min 2 min 7 W/m 6,3 km/h (2 Bft) 93,48 %
30.04.2016 06:28 6,1 C 5,6 C 5,0 C 95 % 15 lf 1016,0 hPa 0,0 l/m 0 min 2 min 7 W/m 4,2 km/h (1 Bft) 95,74 %
30.04.2016 06:30 6,1 C 5,6 C 5,0 C 95 % 15 lf 1016,1 hPa 0,0 l/m 0 min 2 min 7 W/m 4,2 km/h (1 Bft) 95,74 %
30.04.2016 06:32 6,1 C 5,6 C 5,0 C 95 % 15 lf 1016,1 hPa 0,0 l/m 0 min 2 min 7 W/m 4,2 km/h (1 Bft) 95,74 %
30.04.2016 06:34 6,1 C 5,6 C 5,0 C 95 % 15 lf 1016,1 hPa 0,0 l/m 0 min 2 min 9 W/m 4,2 km/h (1 Bft) 93,62 %
30.04.2016 06:36 6,1 C 5,6 C 5,0 C 95 % 15 lf 1016,1 hPa 0,0 l/m 0 min 2 min 9 W/m 2,1 km/h (1 Bft) 97,87 %
30.04.2016 06:38 6,1 C 5,6 C 5,0 C 95 % 15 lf 1016,1 hPa 0,0 l/m 0 min 2 min 9 W/m 4,2 km/h (1 Bft) 93,48 %
30.04.2016 06:40 6,1 C 5,6 C 5,0 C 95 % 15 lf 1016,2 hPa 0,0 l/m 0 min 2 min 11 W/m 4,2 km/h (1 Bft) 89,36 %
30.04.2016 06:42 6,1 C 5,6 C 5,0 C 95 % 15 lf 1016,2 hPa 0,0 l/m 0 min 2 min 11 W/m 2,1 km/h (1 Bft) 91,49 %
30.04.2016 06:44 6,1 C 5,6 C 5,0 C 95 % 15 lf 1016,2 hPa 0,0 l/m 0 min 2 min 12 W/m 4,2 km/h (1 Bft) 93,62 %
30.04.2016 06:46 6,1 C 5,6 C 5,0 C 95 % 15 lf 1016,2 hPa 0,0 l/m 0 min 2 min 13 W/m 4,2 km/h (1 Bft) 87,23 %
30.04.2016 06:48 6,1 C 5,6 C 5,0 C 95 % 15 lf 1016,3 hPa 0,0 l/m 0 min 2 min 14 W/m 2,1 km/h (1 Bft) 93,48 %
30.04.2016 06:50 6,0 C 5,6 C 5,0 C 95 % 15 lf 1016,3 hPa 0,0 l/m 0 min 2 min 14 W/m 2,1 km/h (1 Bft) 93,62 %
30.04.2016 06:52 6,0 C 5,6 C 5,0 C 95 % 15 lf 1016,3 hPa 0,0 l/m 0 min 2 min 18 W/m 0,0 km/h (0 Bft) 93,62 %
30.04.2016 06:54 6,0 C 6,1 C 5,0 C 95 % 15 lf 1016,3 hPa 0,0 l/m 0 min 2 min 19 W/m 2,1 km/h (1 Bft) 93,62 %
30.04.2016 06:56 6,0 C 6,1 C 5,0 C 95 % 15 lf 1016,3 hPa 0,0 l/m 0 min 2 min 21 W/m 0,0 km/h (0 Bft) 95,74 %
30.04.2016 06:58 6,0 C 6,1 C 5,0 C 95 % 15 lf 1016,3 hPa 0,0 l/m 0 min 2 min 22 W/m 2,1 km/h (1 Bft) 93,62 %
30.04.2016 07:00 6,0 C 6,1 C 5,0 C 95 % 15 lf 1016,3 hPa 0,0 l/m 0 min 2 min 23 W/m 4,2 km/h (1 Bft) 95,65 %
30.04.2016 07:02 6,0 C 6,1 C 5,0 C 95 % 15 lf 1016,3 hPa 0,0 l/m 0 min 2 min 21 W/m 4,2 km/h (1 Bft) 93,62 %
30.04.2016 07:04 6,0 C 6,1 C 5,0 C 95 % 15 lf 1016,4 hPa 0,0 l/m 0 min 2 min 19 W/m 2,1 km/h (1 Bft) 95,74 %
30.04.2016 07:06 6,0 C 6,1 C 5,0 C 95 % 15 lf 1016,4 hPa 0,0 l/m 0 min 2 min 19 W/m 0,0 km/h (0 Bft) 97,87 %
30.04.2016 07:08 6,0 C 6,1 C 5,0 C 95 % 15 lf 1016,4 hPa 0,0 l/m 0 min 2 min 20 W/m 0,0 km/h (0 Bft) 100,00 %
30.04.2016 07:10 6,0 C 6,1 C 5,0 C 95 % 15 lf 1016,4 hPa 0,0 l/m 0 min 2 min 22 W/m 4,2 km/h (1 Bft) 95,74 %
30.04.2016 07:12 6,0 C 6,1 C 5,0 C 95 % 15 lf 1016,4 hPa 0,0 l/m 0 min 2 min 24 W/m 2,1 km/h (1 Bft) 97,83 %
30.04.2016 07:14 6,0 C 6,1 C 5,0 C 95 % 15 lf 1016,5 hPa 0,0 l/m 0 min 2 min 26 W/m 2,1 km/h (1 Bft) 100,00 %
30.04.2016 07:16 6,0 C 6,1 C 5,0 C 95 % 15 lf 1016,5 hPa 0,0 l/m 0 min 2 min 30 W/m 2,1 km/h (1 Bft) 100,00 %
30.04.2016 07:18 6,0 C 6,1 C 5,0 C 95 % 15 lf 1016,5 hPa 0,0 l/m 0 min 2 min 33 W/m 0,0 km/h (0 Bft) 97,87 %
30.04.2016 07:20 6,0 C 6,1 C 5,0 C 95 % 15 lf 1016,5 hPa 0,0 l/m 0 min 2 min 36 W/m 0,0 km/h (0 Bft) 100,00 %
30.04.2016 07:22 6,0 C 6,1 C 5,0 C 95 % 15 lf 1016,6 hPa 0,0 l/m 0 min 2 min 38 W/m 0,0 km/h (0 Bft) 97,87 %
30.04.2016 07:24 6,0 C 6,1 C 5,0 C 95 % 15 lf 1016,6 hPa 0,0 l/m 0 min 2 min 40 W/m 0,0 km/h (0 Bft) 100,00 %
30.04.2016 07:26 6,1 C 6,1 C 5,0 C 95 % 15 lf 1016,6 hPa 0,0 l/m 0 min 2 min 44 W/m 0,0 km/h (0 Bft) 97,87 %
30.04.2016 07:28 6,0 C 6,1 C 5,0 C 95 % 15 lf 1016,6 hPa 0,0 l/m 0 min 2 min 50 W/m 0,0 km/h (0 Bft) 97,87 %
30.04.2016 07:30 6,1 C 6,1 C 5,0 C 95 % 15 lf 1016,6 hPa 0,0 l/m 0 min 2 min 57 W/m 0,0 km/h (0 Bft) 96,00 %
30.04.2016 07:32 6,1 C 6,1 C 5,0 C 95 % 15 lf 1016,6 hPa 0,0 l/m 0 min 2 min 62 W/m 0,0 km/h (0 Bft) 97,87 %
30.04.2016 07:34 6,1 C 6,1 C 5,0 C 95 % 15 lf 1016,7 hPa 0,0 l/m 0 min 2 min 65 W/m 0,0 km/h (0 Bft) 97,83 %
30.04.2016 07:36 6,1 C 6,1 C 5,0 C 95 % 15 lf 1016,7 hPa 0,0 l/m 0 min 2 min 67 W/m 0,0 km/h (0 Bft) 97,87 %
30.04.2016 07:38 6,1 C 6,1 C 5,0 C 95 % 15 lf 1016,7 hPa 0,0 l/m 0 min 2 min 69 W/m 0,0 km/h (0 Bft) 100,00 %
30.04.2016 07:40 6,1 C 6,1 C 5,0 C 95 % 15 lf 1016,7 hPa 0,0 l/m 0 min 2 min 70 W/m 0,0 km/h (0 Bft) 100,00 %
30.04.2016 07:42 6,1 C 6,1 C 5,0 C 95 % 15 lf 1016,8 hPa 0,0 l/m 0 min 2 min 72 W/m 0,0 km/h (0 Bft) 97,87 %
30.04.2016 07:44 6,1 C 6,1 C 5,0 C 95 % 15 lf 1016,8 hPa 0,0 l/m 0 min 2 min 70 W/m 0,0 km/h (0 Bft) 100,00 %
30.04.2016 07:46 6,1 C 6,1 C 5,0 C 95 % 15 lf 1016,8 hPa 0,0 l/m 0 min 2 min 67 W/m 0,0 km/h (0 Bft) 100,00 %
30.04.2016 07:48 6,1 C 6,1 C 5,0 C 95 % 15 lf 1016,8 hPa 0,0 l/m 0 min 2 min 65 W/m 0,0 km/h (0 Bft) 97,37 %
30.04.2016 07:50 6,1 C 6,1 C 5,0 C 95 % 15 lf 1016,8 hPa 0,0 l/m 0 min 2 min 63 W/m 0,0 km/h (0 Bft) 93,62 %
30.04.2016 07:52 6,1 C 6,1 C 5,0 C 95 % 15 lf 1016,8 hPa 0,0 l/m 0 min 2 min 62 W/m 0,0 km/h (0 Bft) 95,74 %
30.04.2016 07:54 6,1 C 6,1 C 5,0 C 95 % 15 lf 1016,8 hPa 0,0 l/m 0 min 2 min 63 W/m 0,0 km/h (0 Bft) 97,83 %
30.04.2016 07:56 6,1 C 6,1 C 5,0 C 95 % 15 lf 1016,8 hPa 0,0 l/m 0 min 2 min 68 W/m 0,0 km/h (0 Bft) 94,44 %
30.04.2016 07:58 6,1 C 6,1 C 5,0 C 95 % 15 lf 1016,8 hPa 0,0 l/m 0 min 2 min 73 W/m 0,0 km/h (0 Bft) 100,00 %
30.04.2016 08:00 6,1 C 6,1 C 5,0 C 96 % 15 lf 1016,8 hPa 0,0 l/m 0 min 2 min 74 W/m 0,0 km/h (0 Bft) 97,87 %
30.04.2016 08:02 6,1 C 6,1 C 5,0 C 96 % 15 lf 1016,9 hPa 0,0 l/m 0 min 2 min 72 W/m 0,0 km/h (0 Bft) 100,00 %
30.04.2016 08:04 6,1 C 6,1 C 5,0 C 96 % 15 lf 1016,9 hPa 0,0 l/m 0 min 2 min 70 W/m 0,0 km/h (0 Bft) 96,00 %
30.04.2016 08:06 6,1 C 6,1 C 5,0 C 96 % 15 lf 1016,9 hPa 0,0 l/m 0 min 2 min 70 W/m 0,0 km/h (0 Bft) 97,87 %
30.04.2016 08:08 6,1 C 6,1 C 5,0 C 96 % 15 lf 1016,9 hPa 0,0 l/m 0 min 2 min 74 W/m 0,0 km/h (0 Bft) 97,87 %
30.04.2016 08:10 6,1 C 6,1 C 5,0 C 96 % 15 lf 1016,9 hPa 0,0 l/m 0 min 2 min 78 W/m 0,0 km/h (0 Bft) 95,65 %
30.04.2016 08:12 6,1 C 5,6 C 5,0 C 96 % 15 lf 1016,9 hPa 0,0 l/m 0 min 2 min 82 W/m 4,2 km/h (1 Bft) 97,87 %
30.04.2016 08:14 6,1 C 5,6 C 4,4 C 96 % 15 lf 1016,9 hPa 0,0 l/m 0 min 0 min 88 W/m 4,2 km/h (1 Bft) 97,87 %
30.04.2016 08:16 6,1 C 5,6 C 5,0 C 96 % 15 lf 1016,9 hPa 0,0 l/m 0 min 2 min 93 W/m 6,3 km/h (2 Bft) 91,49 %
30.04.2016 08:18 6,0 C 6,1 C 5,0 C 96 % 15 lf 1016,9 hPa 0,0 l/m 0 min 2 min 97 W/m 4,2 km/h (1 Bft) 97,87 %
30.04.2016 08:20 6,0 C 6,1 C 5,0 C 96 % 15 lf 1017,0 hPa 0,0 l/m 0 min 2 min 102 W/m 4,2 km/h (1 Bft) 97,87 %
30.04.2016 08:22 5,9 C 6,1 C 5,0 C 96 % 15 lf 1016,9 hPa 0,0 l/m 0 min 2 min 108 W/m 6,3 km/h (2 Bft) 95,65 %
30.04.2016 08:24 5,9 C 6,1 C 5,0 C 96 % 15 lf 1016,9 hPa 0,0 l/m 0 min 0 min 116 W/m 6,3 km/h (2 Bft) 97,87 %
30.04.2016 08:26 5,9 C 6,1 C 5,0 C 96 % 15 lf 1016,9 hPa 0,0 l/m 0 min 0 min 120 W/m 6,3 km/h (2 Bft) 87,23 %
30.04.2016 08:28 5,9 C 6,1 C 5,0 C 96 % 15 lf 1016,9 hPa 0,0 l/m 0 min 0 min 120 W/m 6,3 km/h (2 Bft) 95,74 %
30.04.2016 08:30 5,9 C 6,7 C 5,0 C 96 % 15 lf 1016,9 hPa 0,0 l/m 0 min 2 min 120 W/m 4,2 km/h (1 Bft) 93,62 %
30.04.2016 08:32 5,9 C 6,7 C 5,0 C 96 % 15 lf 1017,0 hPa 0,0 l/m 0 min 0 min 119 W/m 4,2 km/h (1 Bft) 95,65 %
30.04.2016 08:34 5,9 C 6,7 C 5,6 C 96 % 15 lf 1017,0 hPa 0,0 l/m 0 min 2 min 123 W/m 2,1 km/h (1 Bft) 93,62 %
30.04.2016 08:36 6,0 C 7,2 C 5,6 C 96 % 15 lf 1017,0 hPa 0,0 l/m 0 min 2 min 129 W/m 0,0 km/h (0 Bft) 95,74 %
30.04.2016 08:38 6,1 C 7,2 C 5,6 C 96 % 15 lf 1017,0 hPa 0,0 l/m 0 min 2 min 134 W/m 4,2 km/h (1 Bft) 94,74 %
30.04.2016 08:40 6,1 C 6,7 C 5,6 C 96 % 15 lf 1017,0 hPa 0,0 l/m 0 min 2 min 134 W/m 6,3 km/h (2 Bft) 95,74 %
30.04.2016 08:42 6,1 C 6,7 C 5,6 C 96 % 15 lf 1017,0 hPa 0,0 l/m 0 min 2 min 133 W/m 6,3 km/h (2 Bft) 89,13 %
30.04.2016 08:44 6,1 C 6,7 C 5,6 C 96 % 14 lf 1017,0 hPa 0,0 l/m 0 min 2 min 140 W/m 4,2 km/h (1 Bft) 93,62 %
30.04.2016 08:46 6,2 C 6,7 C 5,6 C 96 % 14 lf 1017,0 hPa 0,0 l/m 0 min 2 min 155 W/m 6,3 km/h (2 Bft) 95,74 %
30.04.2016 08:48 6,2 C 6,7 C 5,6 C 96 % 14 lf 1017,0 hPa 0,0 l/m 0 min 2 min 167 W/m 8,4 km/h (2 Bft) 93,62 %
30.04.2016 08:50 6,2 C 6,7 C 5,6 C 96 % 14 lf 1017,0 hPa 0,0 l/m 0 min 2 min 171 W/m 8,4 km/h (2 Bft) 95,74 %
30.04.2016 08:52 6,3 C 6,7 C 5,6 C 96 % 13 lf 1017,0 hPa 0,0 l/m 0 min 2 min 172 W/m 6,3 km/h (2 Bft) 97,87 %
30.04.2016 08:54 6,3 C 6,7 C 5,6 C 96 % 13 lf 1017,0 hPa 0,0 l/m 0 min 2 min 170 W/m 8,4 km/h (2 Bft) 97,83 %
30.04.2016 08:56 6,3 C 6,7 C 5,6 C 96 % 12 lf 1017,1 hPa 0,0 l/m 0 min 2 min 162 W/m 8,4 km/h (2 Bft) 97,87 %
30.04.2016 08:58 6,3 C 6,1 C 5,0 C 96 % 11 lf 1017,0 hPa 0,0 l/m 0 min 2 min 150 W/m 8,4 km/h (2 Bft) 93,62 %
30.04.2016 09:00 6,3 C 6,7 C 5,0 C 96 % 11 lf 1017,1 hPa 0,0 l/m 0 min 2 min 134 W/m 10,5 km/h (2 Bft) 93,62 %
30.04.2016 09:02 6,3 C 6,7 C 5,0 C 96 % 10 lf 1017,1 hPa 0,0 l/m 0 min 2 min 122 W/m 8,4 km/h (2 Bft) 95,74 %
30.04.2016 09:04 6,3 C 6,7 C 5,0 C 96 % 10 lf 1017,1 hPa 0,0 l/m 0 min 2 min 117 W/m 8,4 km/h (2 Bft) 95,74 %
30.04.2016 09:06 6,3 C 6,7 C 5,6 C 96 % 10 lf 1017,2 hPa 0,0 l/m 0 min 2 min 121 W/m 8,4 km/h (2 Bft) 97,83 %
30.04.2016 09:08 6,3 C 6,7 C 5,0 C 96 % 10 lf 1017,1 hPa 0,0 l/m 0 min 2 min 130 W/m 8,4 km/h (2 Bft) 97,87 %
30.04.2016 09:10 6,3 C 6,7 C 5,6 C 96 % 9 lf 1017,2 hPa 0,0 l/m 0 min 2 min 145 W/m 8,4 km/h (2 Bft) 100,00 %
30.04.2016 09:12 6,4 C 6,7 C 5,6 C 96 % 9 lf 1017,1 hPa 0,0 l/m 0 min 2 min 161 W/m 8,4 km/h (2 Bft) 97,87 %
30.04.2016 09:14 6,4 C 6,7 C 5,6 C 96 % 9 lf 1017,1 hPa 0,0 l/m 0 min 2 min 178 W/m 6,3 km/h (2 Bft) 96,23 %
30.04.2016 09:16 6,4 C 6,7 C 5,6 C 96 % 8 lf 1017,1 hPa 0,0 l/m 0 min 2 min 194 W/m 8,4 km/h (2 Bft) 89,36 %
30.04.2016 09:18 6,4 C 6,7 C 5,6 C 96 % 7 lf 1017,1 hPa 0,0 l/m 0 min 2 min 206 W/m 6,3 km/h (2 Bft) 97,87 %
30.04.2016 09:20 6,4 C 6,7 C 5,6 C 95 % 6 lf 1017,2 hPa 0,0 l/m 0 min 2 min 214 W/m 8,4 km/h (2 Bft) 97,83 %
30.04.2016 09:22 6,4 C 7,2 C 5,6 C 95 % 6 lf 1017,2 hPa 0,0 l/m 0 min 0 min 220 W/m 8,4 km/h (2 Bft) 97,87 %
30.04.2016 09:24 6,4 C 7,8 C 6,1 C 95 % 5 lf 1017,2 hPa 0,0 l/m 0 min 0 min 222 W/m 6,3 km/h (2 Bft) 97,87 %
30.04.2016 09:26 6,5 C 7,8 C 6,1 C 95 % 4 lf 1017,2 hPa 0,2 l/m 0 min 0 min 225 W/m 6,3 km/h (2 Bft) 97,87 %
30.04.2016 09:28 6,6 C 8,3 C 6,7 C 96 % 4 lf 1017,2 hPa 0,0 l/m 0 min 0 min 229 W/m 8,4 km/h (2 Bft) 95,74 %
30.04.2016 09:30 6,7 C 7,8 C 6,7 C 96 % 4 lf 1017,2 hPa 0,0 l/m 0 min 0 min 232 W/m 10,5 km/h (2 Bft) 95,92 %
30.04.2016 09:32 6,7 C 7,2 C 5,6 C 96 % 3 lf 1017,3 hPa 0,0 l/m 0 min 0 min 234 W/m 6,3 km/h (2 Bft) 91,49 %
30.04.2016 09:34 6,7 C 7,8 C 6,1 C 95 % 3 lf 1017,3 hPa 0,0 l/m 0 min 0 min 234 W/m 6,3 km/h (2 Bft) 97,87 %
30.04.2016 09:36 6,8 C 8,3 C 6,1 C 95 % 3 lf 1017,3 hPa 0,0 l/m 0 min 0 min 235 W/m 6,3 km/h (2 Bft) 97,87 %
30.04.2016 09:38 6,8 C 8,9 C 6,7 C 95 % 3 lf 1017,4 hPa 0,0 l/m 0 min 0 min 236 W/m 6,3 km/h (2 Bft) 97,87 %
30.04.2016 09:40 6,9 C 9,4 C 6,7 C 95 % 3 lf 1017,4 hPa 0,0 l/m 0 min 0 min 232 W/m 2,1 km/h (1 Bft) 97,87 %
30.04.2016 09:42 6,9 C 9,4 C 6,1 C 96 % 3 lf 1017,4 hPa 0,0 l/m 0 min 0 min 222 W/m 2,1 km/h (1 Bft) 97,83 %
30.04.2016 09:44 7,0 C 8,9 C 6,7 C 96 % 2 lf 1017,4 hPa 0,0 l/m 0 min 0 min 208 W/m 4,2 km/h (1 Bft) 93,62 %
30.04.2016 09:46 7,0 C 8,3 C 6,7 C 95 % 2 lf 1017,4 hPa 0,0 l/m 0 min 2 min 203 W/m 4,2 km/h (1 Bft) 95,74 %
30.04.2016 09:48 7,0 C 8,3 C 6,1 C 95 % 2 lf 1017,4 hPa 0,0 l/m 0 min 2 min 211 W/m 6,3 km/h (2 Bft) 97,87 %
30.04.2016 09:50 7,0 C 8,3 C 6,7 C 95 % 3 lf 1017,3 hPa 0,0 l/m 0 min 2 min 220 W/m 2,1 km/h (1 Bft) 87,23 %
30.04.2016 09:52 7,1 C 8,3 C 6,7 C 95 % 3 lf 1017,3 hPa 0,0 l/m 0 min 2 min 232 W/m 6,3 km/h (2 Bft) 100,00 %
30.04.2016 09:54 7,1 C 7,8 C 6,1 C 95 % 2 lf 1017,2 hPa 0,0 l/m 0 min 2 min 241 W/m 8,4 km/h (2 Bft) 97,83 %
30.04.2016 09:56 7,1 C 7,8 C 6,1 C 95 % 2 lf 1017,2 hPa 0,0 l/m 0 min 2 min 253 W/m 6,3 km/h (2 Bft) 97,87 %
30.04.2016 09:58 7,1 C 8,3 C 6,7 C 95 % 2 lf 1017,3 hPa 0,0 l/m 0 min 2 min 271 W/m 6,3 km/h (2 Bft) 100,00 %
30.04.2016 10:00 7,2 C 8,3 C 6,7 C 95 % 1 lf 1017,3 hPa 0,0 l/m 2 min 2 min 301 W/m 6,3 km/h (2 Bft) 97,87 %
30.04.2016 10:02 7,2 C 8,3 C 7,2 C 95 % 1 lf 1017,4 hPa 0,0 l/m 2 min 2 min 339 W/m 10,5 km/h (2 Bft) 100,00 %
30.04.2016 10:04 7,3 C 8,9 C 7,2 C 95 % 0 lf 1017,4 hPa 0,0 l/m 2 min 2 min 368 W/m 8,4 km/h (2 Bft) 97,87 %
30.04.2016 10:06 7,3 C 9,4 C 7,8 C 95 % 0 lf 1017,4 hPa 0,0 l/m 2 min 0 min 411 W/m 8,4 km/h (2 Bft) 95,65 %
30.04.2016 10:08 7,4 C 10,0 C 7,8 C 95 % 0 lf 1017,4 hPa 0,0 l/m 2 min 0 min 412 W/m 6,3 km/h (2 Bft) 97,87 %
30.04.2016 10:10 7,4 C 10,6 C 7,8 C 95 % 0 lf 1017,4 hPa 0,0 l/m 2 min 0 min 390 W/m 8,4 km/h (2 Bft) 95,74 %
30.04.2016 10:12 7,6 C 11,1 C 7,8 C 95 % 0 lf 1017,5 hPa 0,0 l/m 2 min 0 min 352 W/m 6,3 km/h (2 Bft) 93,62 %
30.04.2016 10:14 7,6 C 10,0 C 7,8 C 95 % 0 lf 1017,5 hPa 0,0 l/m 2 min 0 min 323 W/m 8,4 km/h (2 Bft) 93,62 %
30.04.2016 10:16 7,7 C 10,0 C 7,2 C 95 % 0 lf 1017,5 hPa 0,0 l/m 2 min 0 min 308 W/m 8,4 km/h (2 Bft) 97,87 %
30.04.2016 10:18 7,7 C 9,4 C 7,2 C 95 % 0 lf 1017,6 hPa 0,0 l/m 2 min 0 min 305 W/m 8,4 km/h (2 Bft) 97,83 %
30.04.2016 10:20 7,8 C 9,4 C 7,2 C 95 % 0 lf 1017,5 hPa 0,0 l/m 0 min 0 min 294 W/m 4,2 km/h (1 Bft) 97,87 %
30.04.2016 10:22 7,8 C 9,4 C 7,2 C 95 % 0 lf 1017,5 hPa 0,0 l/m 0 min 0 min 296 W/m 8,4 km/h (2 Bft) 93,62 %
30.04.2016 10:24 7,9 C 9,4 C 7,2 C 94 % 0 lf 1017,5 hPa 0,0 l/m 2 min 0 min 305 W/m 8,4 km/h (2 Bft) 89,36 %
30.04.2016 10:26 7,9 C 9,4 C 7,2 C 94 % 0 lf 1017,5 hPa 0,0 l/m 2 min 0 min 306 W/m 10,5 km/h (2 Bft) 93,62 %
30.04.2016 10:28 7,9 C 10,0 C 7,2 C 94 % 0 lf 1017,6 hPa 0,0 l/m 2 min 0 min 316 W/m 8,4 km/h (2 Bft) 91,49 %
30.04.2016 10:30 8,0 C 10,0 C 7,2 C 94 % 0 lf 1017,6 hPa 0,0 l/m 2 min 0 min 325 W/m 8,4 km/h (2 Bft) 95,65 %
30.04.2016 10:32 8,0 C 10,6 C 7,2 C 94 % 0 lf 1017,6 hPa 0,0 l/m 2 min 0 min 339 W/m 6,3 km/h (2 Bft) 95,74 %
30.04.2016 10:34 8,1 C 10,6 C 7,2 C 93 % 0 lf 1017,6 hPa 0,0 l/m 2 min 0 min 325 W/m 6,3 km/h (2 Bft) 95,74 %
30.04.2016 10:36 8,1 C 10,6 C 7,2 C 93 % 0 lf 1017,6 hPa 0,0 l/m 0 min 0 min 299 W/m 6,3 km/h (2 Bft) 93,62 %
30.04.2016 10:38 8,1 C 10,0 C 7,2 C 93 % 0 lf 1017,6 hPa 0,0 l/m 0 min 0 min 294 W/m 8,4 km/h (2 Bft) 91,49 %
30.04.2016 10:40 8,2 C 10,6 C 7,8 C 93 % 0 lf 1017,6 hPa 0,0 l/m 0 min 0 min 312 W/m 4,2 km/h (1 Bft) 95,74 %
30.04.2016 10:42 8,2 C 11,1 C 7,8 C 92 % 0 lf 1017,6 hPa 0,0 l/m 2 min 0 min 324 W/m 4,2 km/h (1 Bft) 91,89 %
30.04.2016 10:44 8,3 C 10,0 C 7,8 C 92 % 0 lf 1017,6 hPa 0,0 l/m 2 min 0 min 324 W/m 4,2 km/h (1 Bft) 87,23 %
30.04.2016 10:46 8,3 C 11,1 C 7,8 C 92 % 0 lf 1017,6 hPa 0,0 l/m 2 min 0 min 337 W/m 4,2 km/h (1 Bft) 89,36 %
30.04.2016 10:48 8,4 C 11,1 C 7,8 C 91 % 0 lf 1017,6 hPa 0,0 l/m 2 min 0 min 331 W/m 6,3 km/h (2 Bft) 93,62 %
30.04.2016 10:50 8,4 C 11,7 C 7,8 C 91 % 0 lf 1017,6 hPa 0,0 l/m 2 min 0 min 326 W/m 6,3 km/h (2 Bft) 91,30 %
30.04.2016 10:52 8,5 C 12,2 C 7,8 C 91 % 0 lf 1017,6 hPa 0,0 l/m 0 min 0 min 319 W/m 2,1 km/h (1 Bft) 93,62 %
30.04.2016 10:54 8,6 C 12,2 C 7,8 C 91 % 0 lf 1017,6 hPa 0,0 l/m 0 min 0 min 307 W/m 2,1 km/h (1 Bft) 91,49 %
30.04.2016 10:56 8,6 C 11,7 C 7,8 C 90 % 0 lf 1017,6 hPa 0,0 l/m 0 min 0 min 294 W/m 4,2 km/h (1 Bft) 95,74 %
30.04.2016 10:58 8,7 C 11,7 C 7,8 C 90 % 0 lf 1017,6 hPa 0,0 l/m 0 min 0 min 302 W/m 2,1 km/h (1 Bft) 91,49 %
30.04.2016 11:00 8,7 C 12,2 C 7,2 C 89 % 0 lf 1017,6 hPa 0,0 l/m 0 min 0 min 303 W/m 4,2 km/h (1 Bft) 93,62 %
30.04.2016 11:02 8,7 C 12,2 C 7,2 C 89 % 0 lf 1017,6 hPa 0,0 l/m 0 min 0 min 298 W/m 6,3 km/h (2 Bft) 95,65 %
30.04.2016 11:04 8,7 C 12,2 C 6,7 C 88 % 0 lf 1017,6 hPa 0,0 l/m 0 min 0 min 296 W/m 6,3 km/h (2 Bft) 93,62 %
30.04.2016 11:06 8,7 C 12,2 C 7,2 C 88 % 0 lf 1017,7 hPa 0,0 l/m 0 min 0 min 293 W/m 4,2 km/h (1 Bft) 94,34 %
30.04.2016 11:08 8,8 C 11,7 C 7,2 C 88 % 0 lf 1017,7 hPa 0,0 l/m 0 min 0 min 288 W/m 2,1 km/h (1 Bft) 93,62 %
30.04.2016 11:10 8,8 C 10,6 C 6,7 C 87 % 0 lf 1017,7 hPa 0,0 l/m 0 min 0 min 277 W/m 6,3 km/h (2 Bft) 93,62 %
30.04.2016 11:12 8,8 C 10,6 C 7,2 C 87 % 0 lf 1017,7 hPa 0,0 l/m 0 min 0 min 283 W/m 6,3 km/h (2 Bft) 93,62 %
30.04.2016 11:14 8,8 C 11,1 C 7,2 C 86 % 0 lf 1017,7 hPa 0,0 l/m 0 min 0 min 282 W/m 6,3 km/h (2 Bft) 93,62 %
30.04.2016 11:16 8,8 C 11,1 C 7,2 C 86 % 0 lf 1017,8 hPa 0,0 l/m 0 min 0 min 272 W/m 6,3 km/h (2 Bft) 93,48 %
30.04.2016 11:18 8,8 C 10,0 C 6,7 C 85 % 0 lf 1017,8 hPa 0,0 l/m 0 min 0 min 267 W/m 8,4 km/h (2 Bft) 97,87 %
30.04.2016 11:20 8,8 C 10,0 C 6,7 C 85 % 0 lf 1017,8 hPa 0,0 l/m 0 min 0 min 271 W/m 6,3 km/h (2 Bft) 95,74 %
30.04.2016 11:22 8,7 C 10,0 C 6,7 C 84 % 0 lf 1017,8 hPa 0,0 l/m 0 min 0 min 277 W/m 8,4 km/h (2 Bft) 97,87 %
30.04.2016 11:24 8,8 C 10,6 C 7,2 C 85 % 0 lf 1017,8 hPa 0,0 l/m 0 min 0 min 285 W/m 6,3 km/h (2 Bft) 95,74 %
30.04.2016 11:26 8,8 C 11,1 C 7,2 C 84 % 0 lf 1017,9 hPa 0,0 l/m 0 min 0 min 298 W/m 6,3 km/h (2 Bft) 100,00 %
30.04.2016 11:28 8,8 C 11,1 C 7,2 C 84 % 0 lf 1017,9 hPa 0,0 l/m 0 min 0 min 313 W/m 4,2 km/h (1 Bft) 93,48 %
30.04.2016 11:30 8,8 C 11,1 C 7,2 C 84 % 0 lf 1017,9 hPa 0,0 l/m 0 min 0 min 323 W/m 6,3 km/h (2 Bft) 100,00 %
30.04.2016 11:32 8,8 C 10,6 C 7,2 C 84 % 0 lf 1017,9 hPa 0,0 l/m 0 min 0 min 321 W/m 2,1 km/h (1 Bft) 98,00 %
30.04.2016 11:34 8,8 C 11,1 C 7,2 C 83 % 0 lf 1017,9 hPa 0,0 l/m 0 min 0 min 307 W/m 2,1 km/h (1 Bft) 97,87 %
30.04.2016 11:36 8,8 C 11,1 C 7,2 C 83 % 0 lf 1017,9 hPa 0,0 l/m 0 min 0 min 299 W/m 4,2 km/h (1 Bft) 100,00 %
30.04.2016 11:38 8,8 C 11,1 C 7,2 C 83 % 0 lf 1018,0 hPa 0,0 l/m 0 min 0 min 309 W/m 2,1 km/h (1 Bft) 100,00 %
30.04.2016 11:40 8,9 C 11,7 C 7,2 C 84 % 0 lf 1018,0 hPa 0,0 l/m 0 min 0 min 329 W/m 6,3 km/h (2 Bft) 100,00 %
30.04.2016 11:42 8,9 C 11,7 C 6,7 C 84 % 2 lf 1018,0 hPa 0,0 l/m 0 min 0 min 347 W/m 6,3 km/h (2 Bft) 100,00 %
30.04.2016 11:44 8,9 C 12,2 C 7,2 C 83 % 0 lf 1018,0 hPa 0,0 l/m 0 min 0 min 353 W/m 6,3 km/h (2 Bft) 100,00 %
30.04.2016 11:46 8,9 C 12,2 C 7,8 C 83 % 0 lf 1018,0 hPa 0,0 l/m 0 min 2 min 348 W/m 4,2 km/h (1 Bft) 97,87 %
30.04.2016 11:48 9,1 C 13,3 C 7,8 C 83 % 0 lf 1018,0 hPa 0,0 l/m 0 min 0 min 348 W/m 4,2 km/h (1 Bft) 97,83 %
30.04.2016 11:50 9,2 C 13,3 C 8,3 C 84 % 0 lf 1018,0 hPa 0,0 l/m 0 min 2 min 343 W/m 4,2 km/h (1 Bft) 95,74 %
30.04.2016 11:52 9,2 C 13,9 C 8,3 C 84 % 1 lf 1018,0 hPa 0,0 l/m 0 min 2 min 330 W/m 2,1 km/h (1 Bft) 100,00 %
30.04.2016 11:54 9,3 C 13,3 C 8,3 C 84 % 1 lf 1018,0 hPa 0,0 l/m 0 min 2 min 315 W/m 6,3 km/h (2 Bft) 100,00 %
30.04.2016 11:56 9,4 C 12,8 C 7,8 C 84 % 3 lf 1018,0 hPa 0,0 l/m 0 min 2 min 270 W/m 8,4 km/h (2 Bft) 97,87 %
30.04.2016 11:58 9,4 C 12,8 C 7,2 C 84 % 6 lf 1018,0 hPa 0,0 l/m 0 min 2 min 221 W/m 6,3 km/h (2 Bft) 100,00 %
30.04.2016 12:00 9,4 C 12,2 C 7,2 C 84 % 14 lf 1018,1 hPa 0,0 l/m 0 min 2 min 190 W/m 8,4 km/h (2 Bft) 97,83 %
30.04.2016 12:02 9,4 C 12,2 C 6,7 C 83 % 15 lf 1018,1 hPa 0,0 l/m 0 min 2 min 182 W/m 6,3 km/h (2 Bft) 97,87 %
30.04.2016 12:04 9,4 C 11,7 C 7,2 C 83 % 15 lf 1018,0 hPa 0,0 l/m 0 min 2 min 195 W/m 6,3 km/h (2 Bft) 97,87 %
30.04.2016 12:06 9,5 C 10,6 C 7,2 C 84 % 15 lf 1018,1 hPa 0,0 l/m 0 min 2 min 222 W/m 4,2 km/h (1 Bft) 95,74 %
30.04.2016 12:08 9,5 C 10,0 C 7,2 C 84 % 15 lf 1018,0 hPa 0,0 l/m 0 min 2 min 260 W/m 4,2 km/h (1 Bft) 93,62 %
30.04.2016 12:10 9,5 C 10,0 C 7,8 C 84 % 15 lf 1018,0 hPa 0,0 l/m 0 min 2 min 304 W/m 4,2 km/h (1 Bft) 97,87 %
30.04.2016 12:12 9,5 C 11,1 C 7,8 C 84 % 15 lf 1018,0 hPa 0,0 l/m 0 min 2 min 346 W/m 8,4 km/h (2 Bft) 93,48 %
30.04.2016 12:14 9,6 C 11,7 C 7,8 C 85 % 15 lf 1018,0 hPa 0,0 l/m 2 min 2 min 381 W/m 6,3 km/h (2 Bft) 95,74 %
30.04.2016 12:16 9,6 C 12,2 C 8,3 C 85 % 15 lf 1018,0 hPa 0,0 l/m 2 min 0 min 448 W/m 6,3 km/h (2 Bft) 97,87 %
30.04.2016 12:18 9,6 C 12,8 C 8,9 C 85 % 15 lf 1018,0 hPa 0,0 l/m 2 min 0 min 463 W/m 6,3 km/h (2 Bft) 95,74 %
30.04.2016 12:20 9,7 C 12,8 C 8,9 C 85 % 15 lf 1018,0 hPa 0,0 l/m 2 min 0 min 451 W/m 8,4 km/h (2 Bft) 96,23 %
30.04.2016 12:22 9,7 C 13,3 C 8,9 C 85 % 14 lf 1018,0 hPa 0,0 l/m 2 min 0 min 425 W/m 8,4 km/h (2 Bft) 93,62 %
30.04.2016 12:24 9,8 C 12,8 C 8,9 C 85 % 13 lf 1018,1 hPa 0,0 l/m 2 min 2 min 391 W/m 6,3 km/h (2 Bft) 91,49 %
30.04.2016 12:26 9,8 C 13,3 C 8,9 C 85 % 11 lf 1018,1 hPa 0,0 l/m 0 min 2 min 350 W/m 8,4 km/h (2 Bft) 91,49 %
30.04.2016 12:28 9,8 C 12,8 C 8,3 C 85 % 7 lf 1018,2 hPa 0,0 l/m 0 min 2 min 304 W/m 10,5 km/h (2 Bft) 95,65 %
30.04.2016 12:30 9,8 C 12,8 C 7,8 C 84 % 11 lf 1018,2 hPa 0,0 l/m 0 min 2 min 270 W/m 12,6 km/h (3 Bft) 93,62 %
30.04.2016 12:32 9,8 C 12,2 C 7,8 C 84 % 13 lf 1018,2 hPa 0,0 l/m 0 min 2 min 249 W/m 8,4 km/h (2 Bft) 95,74 %
30.04.2016 12:34 9,8 C 11,7 C 7,8 C 84 % 14 lf 1018,2 hPa 0,0 l/m 0 min 2 min 255 W/m 8,4 km/h (2 Bft) 95,74 %
30.04.2016 12:36 9,8 C 11,7 C 7,8 C 84 % 15 lf 1018,2 hPa 0,0 l/m 0 min 2 min 295 W/m 10,5 km/h (2 Bft) 95,74 %
30.04.2016 12:38 9,8 C 11,1 C 7,8 C 84 % 15 lf 1018,2 hPa 0,0 l/m 0 min 2 min 334 W/m 12,6 km/h (3 Bft) 95,65 %
30.04.2016 12:40 9,8 C 11,7 C 7,8 C 84 % 15 lf 1018,3 hPa 0,0 l/m 0 min 2 min 358 W/m 10,5 km/h (2 Bft) 95,74 %
30.04.2016 12:42 9,8 C 12,2 C 8,3 C 84 % 15 lf 1018,3 hPa 0,0 l/m 0 min 2 min 368 W/m 6,3 km/h (2 Bft) 95,74 %
30.04.2016 12:44 9,8 C 12,2 C 7,8 C 84 % 15 lf 1018,3 hPa 0,0 l/m 0 min 2 min 385 W/m 10,5 km/h (2 Bft) 91,49 %
30.04.2016 12:46 9,8 C 12,2 C 8,3 C 84 % 15 lf 1018,3 hPa 0,0 l/m 2 min 2 min 408 W/m 6,3 km/h (2 Bft) 95,74 %
30.04.2016 12:48 9,8 C 12,8 C 8,9 C 84 % 15 lf 1018,4 hPa 0,0 l/m 2 min 2 min 447 W/m 12,6 km/h (3 Bft) 93,62 %
30.04.2016 12:50 9,8 C 13,3 C 8,9 C 84 % 13 lf 1018,3 hPa 0,0 l/m 2 min 2 min 485 W/m 8,4 km/h (2 Bft) 95,65 %
30.04.2016 12:52 9,8 C 13,9 C 8,9 C 84 % 10 lf 1018,3 hPa 0,0 l/m 2 min 2 min 538 W/m 6,3 km/h (2 Bft) 95,74 %
30.04.2016 12:54 9,9 C 13,3 C 8,9 C 84 % 4 lf 1018,3 hPa 0,0 l/m 2 min 0 min 526 W/m 8,4 km/h (2 Bft) 96,00 %
30.04.2016 12:56 9,9 C 14,4 C 8,9 C 84 % 1 lf 1018,3 hPa 0,0 l/m 2 min 0 min 492 W/m 10,5 km/h (2 Bft) 94,74 %
30.04.2016 12:58 9,9 C 15,0 C 8,9 C 84 % 1 lf 1018,2 hPa 0,0 l/m 2 min 2 min 507 W/m 10,5 km/h (2 Bft) 95,65 %
30.04.2016 13:00 9,9 C 15,0 C 8,9 C 84 % 1 lf 1018,1 hPa 0,0 l/m 2 min 2 min 534 W/m 6,3 km/h (2 Bft) 100,00 %
30.04.2016 13:02 10,0 C 14,4 C 9,4 C 84 % 0 lf 1018,2 hPa 0,0 l/m 2 min 0 min 536 W/m 6,3 km/h (2 Bft) 97,87 %
30.04.2016 13:04 10,0 C 13,9 C 9,4 C 83 % 0 lf 1018,2 hPa 0,0 l/m 2 min 0 min 508 W/m 6,3 km/h (2 Bft) 97,87 %
30.04.2016 13:06 10,1 C 14,4 C 9,4 C 83 % 0 lf 1018,2 hPa 0,0 l/m 2 min 0 min 484 W/m 6,3 km/h (2 Bft) 95,74 %
30.04.2016 13:08 10,1 C 15,0 C 8,9 C 83 % 1 lf 1018,2 hPa 0,0 l/m 2 min 2 min 455 W/m 10,5 km/h (2 Bft) 100,00 %
30.04.2016 13:10 10,2 C 15,6 C 8,9 C 83 % 1 lf 1018,2 hPa 0,0 l/m 2 min 2 min 438 W/m 8,4 km/h (2 Bft) 100,00 %
30.04.2016 13:12 10,2 C 16,1 C 8,9 C 82 % 1 lf 1018,2 hPa 0,0 l/m 2 min 2 min 451 W/m 6,3 km/h (2 Bft) 95,74 %
30.04.2016 13:14 10,3 C 15,6 C 8,9 C 82 % 0 lf 1018,2 hPa 0,0 l/m 2 min 2 min 452 W/m 8,4 km/h (2 Bft) 95,74 %
30.04.2016 13:16 10,3 C 15,6 C 8,3 C 81 % 1 lf 1018,2 hPa 0,0 l/m 2 min 2 min 467 W/m 4,2 km/h (1 Bft) 93,62 %
30.04.2016 13:18 10,3 C 15,6 C 8,9 C 80 % 0 lf 1018,2 hPa 0,0 l/m 2 min 2 min 504 W/m 0,0 km/h (0 Bft) 100,00 %
30.04.2016 13:20 10,4 C 16,7 C 8,9 C 81 % 2 lf 1018,1 hPa 0,0 l/m 2 min 2 min 511 W/m 4,2 km/h (1 Bft) 100,00 %
30.04.2016 13:22 10,5 C 16,7 C 9,4 C 80 % 3 lf 1018,1 hPa 0,0 l/m 2 min 2 min 480 W/m 10,5 km/h (2 Bft) 97,83 %
30.04.2016 13:24 10,5 C 16,7 C 9,4 C 79 % 2 lf 1018,2 hPa 0,0 l/m 2 min 2 min 471 W/m 10,5 km/h (2 Bft) 97,87 %
30.04.2016 13:26 10,5 C 16,1 C 9,4 C 78 % 1 lf 1018,2 hPa 0,0 l/m 2 min 2 min 436 W/m 10,5 km/h (2 Bft) 97,87 %
30.04.2016 13:28 10,4 C 15,0 C 9,4 C 78 % 0 lf 1018,2 hPa 0,0 l/m 0 min 2 min 368 W/m 8,4 km/h (2 Bft) 95,74 %
30.04.2016 13:30 10,4 C 14,4 C 9,4 C 77 % 1 lf 1018,2 hPa 0,0 l/m 0 min 2 min 328 W/m 10,5 km/h (2 Bft) 93,62 %
30.04.2016 13:32 10,4 C 13,9 C 9,4 C 76 % 1 lf 1018,2 hPa 0,0 l/m 0 min 2 min 314 W/m 8,4 km/h (2 Bft) 95,74 %
30.04.2016 13:34 10,3 C 13,3 C 9,4 C 75 % 0 lf 1018,1 hPa 0,0 l/m 0 min 2 min 307 W/m 12,6 km/h (3 Bft) 95,65 %
30.04.2016 13:36 10,3 C 12,8 C 9,4 C 75 % 1 lf 1018,2 hPa 0,0 l/m 0 min 2 min 288 W/m 10,5 km/h (2 Bft) 97,87 %
30.04.2016 13:38 10,3 C 12,8 C 8,9 C 76 % 2 lf 1018,2 hPa 0,0 l/m 0 min 2 min 260 W/m 10,5 km/h (2 Bft) 97,87 %
30.04.2016 13:40 10,2 C 12,8 C 8,9 C 76 % 1 lf 1018,1 hPa 0,0 l/m 0 min 2 min 236 W/m 10,5 km/h (2 Bft) 97,87 %
30.04.2016 13:42 10,2 C 12,2 C 8,9 C 77 % 2 lf 1018,1 hPa 0,0 l/m 0 min 2 min 215 W/m 14,6 km/h (3 Bft) 95,74 %
30.04.2016 13:44 10,1 C 11,7 C 8,9 C 76 % 3 lf 1018,2 hPa 0,0 l/m 0 min 2 min 216 W/m 16,7 km/h (3 Bft) 97,87 %
30.04.2016 13:46 10,1 C 11,7 C 8,9 C 77 % 2 lf 1018,2 hPa 0,0 l/m 0 min 2 min 230 W/m 16,7 km/h (3 Bft) 95,65 %
30.04.2016 13:48 10,1 C 11,7 C 8,9 C 78 % 3 lf 1018,2 hPa 0,0 l/m 0 min 2 min 257 W/m 8,4 km/h (2 Bft) 91,49 %
30.04.2016 13:50 10,1 C 11,7 C 9,4 C 79 % 2 lf 1018,2 hPa 0,0 l/m 0 min 2 min 267 W/m 8,4 km/h (2 Bft) 97,87 %
30.04.2016 13:52 10,1 C 12,2 C 9,4 C 80 % 0 lf 1018,2 hPa 0,0 l/m 0 min 2 min 259 W/m 8,4 km/h (2 Bft) 97,87 %
30.04.2016 13:54 10,1 C 12,2 C 9,4 C 81 % 0 lf 1018,2 hPa 0,0 l/m 0 min 0 min 261 W/m 8,4 km/h (2 Bft) 97,87 %
30.04.2016 13:56 10,1 C 12,8 C 9,4 C 81 % 1 lf 1018,3 hPa 0,0 l/m 0 min 0 min 285 W/m 8,4 km/h (2 Bft) 97,87 %
30.04.2016 13:58 10,1 C 12,8 C 9,4 C 81 % 0 lf 1018,3 hPa 0,0 l/m 0 min 0 min 288 W/m 6,3 km/h (2 Bft) 95,65 %
30.04.2016 14:00 10,1 C 12,8 C 10,0 C 81 % 0 lf 1018,3 hPa 0,0 l/m 0 min 0 min 287 W/m 8,4 km/h (2 Bft) 91,49 %
30.04.2016 14:02 10,1 C 12,8 C 10,0 C 81 % 0 lf 1018,4 hPa 0,0 l/m 0 min 0 min 304 W/m 6,3 km/h (2 Bft) 93,62 %
30.04.2016 14:04 10,2 C 12,8 C 10,6 C 81 % 0 lf 1018,3 hPa 0,0 l/m 0 min 0 min 293 W/m 6,3 km/h (2 Bft) 95,74 %
30.04.2016 14:06 10,2 C 13,3 C 10,0 C 81 % 0 lf 1018,3 hPa 0,0 l/m 0 min 0 min 276 W/m 4,2 km/h (1 Bft) 95,74 %
30.04.2016 14:08 10,2 C 12,8 C 10,0 C 81 % 0 lf 1018,4 hPa 0,0 l/m 0 min 0 min 274 W/m 8,4 km/h (2 Bft) 95,74 %
30.04.2016 14:10 10,2 C 12,8 C 10,6 C 81 % 0 lf 1018,3 hPa 0,0 l/m 0 min 0 min 305 W/m 8,4 km/h (2 Bft) 95,65 %
30.04.2016 14:12 10,2 C 13,3 C 10,6 C 81 % 0 lf 1018,3 hPa 0,0 l/m 0 min 0 min 348 W/m 10,5 km/h (2 Bft) 97,87 %
30.04.2016 14:14 10,2 C 13,9 C 10,6 C 81 % 0 lf 1018,4 hPa 0,0 l/m 0 min 0 min 328 W/m 8,4 km/h (2 Bft) 97,87 %
30.04.2016 14:16 10,3 C 13,9 C 10,6 C 80 % 0 lf 1018,4 hPa 0,0 l/m 0 min 0 min 316 W/m 6,3 km/h (2 Bft) 93,62 %
30.04.2016 14:18 10,3 C 13,9 C 11,1 C 80 % 0 lf 1018,4 hPa 0,0 l/m 0 min 0 min 340 W/m 6,3 km/h (2 Bft) 100,00 %
30.04.2016 14:20 10,4 C 14,4 C 11,1 C 80 % 0 lf 1018,3 hPa 0,0 l/m 0 min 0 min 360 W/m 6,3 km/h (2 Bft) 97,83 %
30.04.2016 14:22 10,4 C 14,4 C 11,1 C 80 % 0 lf 1018,3 hPa 0,0 l/m 0 min 0 min 332 W/m 8,4 km/h (2 Bft) 97,87 %
30.04.2016 14:24 10,5 C 13,9 C 11,7 C 80 % 0 lf 1018,3 hPa 0,0 l/m 0 min 0 min 350 W/m 4,2 km/h (1 Bft) 95,74 %
30.04.2016 14:26 10,6 C 13,9 C 11,7 C 80 % 0 lf 1018,3 hPa 0,0 l/m 0 min 0 min 323 W/m 6,3 km/h (2 Bft) 97,87 %
30.04.2016 14:28 10,6 C 13,3 C 11,1 C 79 % 0 lf 1018,3 hPa 0,0 l/m 0 min 0 min 309 W/m 6,3 km/h (2 Bft) 93,62 %
30.04.2016 14:30 10,6 C 12,8 C 11,1 C 78 % 0 lf 1018,3 hPa 0,0 l/m 0 min 0 min 344 W/m 6,3 km/h (2 Bft) 97,87 %
30.04.2016 14:32 10,6 C 13,3 C 10,6 C 78 % 0 lf 1018,3 hPa 0,0 l/m 0 min 0 min 345 W/m 4,2 km/h (1 Bft) 95,65 %
30.04.2016 14:34 10,7 C 13,9 C 10,6 C 77 % 0 lf 1018,3 hPa 0,0 l/m 0 min 0 min 338 W/m 8,4 km/h (2 Bft) 95,74 %
30.04.2016 14:36 10,7 C 13,3 C 10,6 C 76 % 0 lf 1018,3 hPa 0,0 l/m 0 min 0 min 343 W/m 8,4 km/h (2 Bft) 93,62 %
30.04.2016 14:38 10,7 C 13,9 C 10,6 C 76 % 0 lf 1018,2 hPa 0,0 l/m 0 min 0 min 343 W/m 12,6 km/h (3 Bft) 93,62 %
30.04.2016 14:40 10,7 C 13,9 C 10,6 C 76 % 0 lf 1018,2 hPa 0,0 l/m 0 min 0 min 331 W/m 10,5 km/h (2 Bft) 91,49 %
30.04.2016 14:42 10,7 C 13,9 C 11,1 C 76 % 0 lf 1018,2 hPa 0,0 l/m 0 min 0 min 320 W/m 8,4 km/h (2 Bft) 95,74 %
30.04.2016 14:44 10,8 C 14,4 C 11,1 C 76 % 0 lf 1018,2 hPa 0,0 l/m 0 min 0 min 316 W/m 8,4 km/h (2 Bft) 97,83 %
30.04.2016 14:46 10,8 C 13,9 C 10,6 C 76 % 0 lf 1018,2 hPa 0,0 l/m 0 min 0 min 302 W/m 10,5 km/h (2 Bft) 95,74 %
30.04.2016 14:48 10,8 C 13,9 C 10,6 C 75 % 0 lf 1018,3 hPa 0,0 l/m 0 min 0 min 274 W/m 10,5 km/h (2 Bft) 93,62 %
30.04.2016 14:50 10,8 C 13,3 C 10,6 C 75 % 0 lf 1018,3 hPa 0,0 l/m 0 min 0 min 259 W/m 12,6 km/h (3 Bft) 95,74 %
30.04.2016 14:52 10,8 C 12,8 C 10,0 C 75 % 0 lf 1018,3 hPa 0,0 l/m 0 min 0 min 225 W/m 8,4 km/h (2 Bft) 95,74 %
30.04.2016 14:54 10,8 C 12,8 C 10,0 C 75 % 1 lf 1018,3 hPa 0,0 l/m 0 min 0 min 185 W/m 10,5 km/h (2 Bft) 91,49 %
30.04.2016 14:56 10,8 C 12,2 C 10,0 C 76 % 0 lf 1018,4 hPa 0,0 l/m 0 min 0 min 169 W/m 6,3 km/h (2 Bft) 95,65 %
30.04.2016 14:58 10,8 C 12,2 C 10,0 C 76 % 0 lf 1018,3 hPa 0,0 l/m 0 min 2 min 156 W/m 6,3 km/h (2 Bft) 95,74 %
30.04.2016 15:00 10,8 C 12,2 C 9,4 C 76 % 0 lf 1018,3 hPa 0,0 l/m 0 min 0 min 143 W/m 10,5 km/h (2 Bft) 97,87 %
30.04.2016 15:02 10,8 C 11,7 C 9,4 C 76 % 0 lf 1018,4 hPa 0,0 l/m 0 min 0 min 150 W/m 20,9 km/h (4 Bft) 97,87 %
30.04.2016 15:04 10,7 C 11,1 C 9,4 C 77 % 0 lf 1018,4 hPa 0,0 l/m 0 min 2 min 151 W/m 18,8 km/h (3 Bft) 97,87 %
30.04.2016 15:06 10,7 C 10,6 C 9,4 C 78 % 0 lf 1018,4 hPa 0,0 l/m 0 min 2 min 138 W/m 14,6 km/h (3 Bft) 98,15 %
30.04.2016 15:08 10,7 C 10,6 C 8,9 C 79 % 0 lf 1018,4 hPa 0,0 l/m 0 min 2 min 133 W/m 16,7 km/h (3 Bft) 95,74 %
30.04.2016 15:10 10,6 C 10,0 C 8,9 C 80 % 0 lf 1018,4 hPa 0,0 l/m 0 min 2 min 136 W/m 18,8 km/h (3 Bft) 95,65 %
30.04.2016 15:12 10,5 C 10,0 C 8,3 C 80 % 0 lf 1018,4 hPa 0,0 l/m 0 min 2 min 156 W/m 18,8 km/h (3 Bft) 97,87 %
30.04.2016 15:14 10,4 C 9,4 C 8,3 C 81 % 0 lf 1018,4 hPa 0,0 l/m 0 min 2 min 164 W/m 14,6 km/h (3 Bft) 91,49 %
30.04.2016 15:16 10,3 C 10,0 C 8,3 C 81 % 0 lf 1018,5 hPa 0,0 l/m 0 min 2 min 180 W/m 16,7 km/h (3 Bft) 97,87 %
30.04.2016 15:18 10,3 C 10,0 C 8,3 C 82 % 1 lf 1018,4 hPa 0,0 l/m 0 min 2 min 183 W/m 12,6 km/h (3 Bft) 93,62 %
30.04.2016 15:20 10,3 C 10,0 C 8,3 C 82 % 0 lf 1018,5 hPa 0,0 l/m 0 min 2 min 182 W/m 14,6 km/h (3 Bft) 95,74 %
30.04.2016 15:22 10,2 C 10,0 C 8,3 C 83 % 0 lf 1018,5 hPa 0,0 l/m 0 min 2 min 168 W/m 10,5 km/h (2 Bft) 93,48 %
30.04.2016 15:24 10,2 C 10,0 C 8,3 C 83 % 0 lf 1018,5 hPa 0,0 l/m 0 min 0 min 155 W/m 12,6 km/h (3 Bft) 97,87 %
30.04.2016 15:26 10,2 C 10,0 C 8,3 C 83 % 0 lf 1018,4 hPa 0,0 l/m 0 min 0 min 141 W/m 14,6 km/h (3 Bft) 95,74 %
30.04.2016 15:28 10,1 C 10,0 C 8,3 C 83 % 0 lf 1018,5 hPa 0,0 l/m 0 min 0 min 126 W/m 16,7 km/h (3 Bft) 97,87 %
30.04.2016 15:30 10,0 C 10,0 C 8,3 C 83 % 0 lf 1018,5 hPa 0,0 l/m 0 min 0 min 116 W/m 14,6 km/h (3 Bft) 97,87 %
30.04.2016 15:32 9,9 C 10,0 C 8,3 C 83 % 0 lf 1018,5 hPa 0,0 l/m 0 min 0 min 104 W/m 10,5 km/h (2 Bft) 95,74 %
30.04.2016 15:34 9,9 C 10,0 C 8,3 C 83 % 0 lf 1018,5 hPa 0,0 l/m 0 min 2 min 86 W/m 14,6 km/h (3 Bft) 97,83 %
30.04.2016 15:36 9,8 C 10,0 C 8,3 C 83 % 1 lf 1018,6 hPa 0,0 l/m 0 min 2 min 61 W/m 16,7 km/h (3 Bft) 97,87 %
30.04.2016 15:38 9,8 C 10,0 C 7,8 C 83 % 3 lf 1018,7 hPa 0,0 l/m 0 min 2 min 46 W/m 16,7 km/h (3 Bft) 93,62 %
30.04.2016 15:40 9,7 C 9,4 C 7,8 C 83 % 3 lf 1018,6 hPa 0,0 l/m 0 min 2 min 39 W/m 14,6 km/h (3 Bft) 97,87 %
30.04.2016 15:42 9,7 C 8,9 C 7,8 C 83 % 2 lf 1018,6 hPa 0,0 l/m 0 min 2 min 39 W/m 12,6 km/h (3 Bft) 95,74 %
30.04.2016 15:44 9,7 C 8,9 C 7,8 C 83 % 12 lf 1018,6 hPa 0,0 l/m 0 min 2 min 40 W/m 14,6 km/h (3 Bft) 97,87 %
30.04.2016 15:46 9,6 C 8,9 C 7,2 C 83 % 14 lf 1018,7 hPa 0,0 l/m 0 min 2 min 42 W/m 18,8 km/h (3 Bft) 97,83 %
30.04.2016 15:48 9,6 C 8,9 C 7,2 C 84 % 15 lf 1018,7 hPa 0,0 l/m 0 min 2 min 46 W/m 10,5 km/h (2 Bft) 95,74 %
30.04.2016 15:50 9,5 C 8,9 C 7,2 C 83 % 15 lf 1018,7 hPa 0,0 l/m 0 min 2 min 52 W/m 10,5 km/h (2 Bft) 97,87 %
30.04.2016 15:52 9,4 C 8,9 C 6,7 C 83 % 15 lf 1018,7 hPa 0,0 l/m 0 min 2 min 57 W/m 8,4 km/h (2 Bft) 95,74 %
30.04.2016 15:54 9,4 C 8,9 C 6,7 C 83 % 14 lf 1018,7 hPa 0,0 l/m 0 min 2 min 58 W/m 8,4 km/h (2 Bft) 95,74 %
30.04.2016 15:56 9,3 C 8,9 C 6,7 C 83 % 14 lf 1018,7 hPa 0,0 l/m 0 min 2 min 56 W/m 8,4 km/h (2 Bft) 95,74 %
30.04.2016 15:58 9,2 C 8,9 C 6,7 C 83 % 13 lf 1018,6 hPa 0,0 l/m 0 min 0 min 54 W/m 10,5 km/h (2 Bft) 100,00 %
30.04.2016 16:00 9,2 C 8,9 C 6,7 C 83 % 13 lf 1018,7 hPa 0,0 l/m 0 min 0 min 54 W/m 6,3 km/h (2 Bft) 97,87 %
30.04.2016 16:02 9,2 C 8,3 C 6,7 C 83 % 12 lf 1018,7 hPa 0,0 l/m 0 min 0 min 54 W/m 6,3 km/h (2 Bft) 100,00 %
30.04.2016 16:04 9,1 C 8,3 C 6,7 C 83 % 11 lf 1018,7 hPa 0,0 l/m 0 min 0 min 55 W/m 4,2 km/h (1 Bft) 95,74 %
30.04.2016 16:06 9,1 C 8,9 C 6,7 C 83 % 9 lf 1018,7 hPa 0,0 l/m 0 min 0 min 56 W/m 2,1 km/h (1 Bft) 100,00 %
30.04.2016 16:08 9,1 C 8,9 C 6,7 C 83 % 6 lf 1018,7 hPa 0,0 l/m 0 min 0 min 60 W/m 4,2 km/h (1 Bft) 100,00 %
30.04.2016 16:10 9,1 C 8,9 C 7,2 C 83 % 4 lf 1018,6 hPa 0,0 l/m 0 min 0 min 62 W/m 6,3 km/h (2 Bft) 97,83 %
30.04.2016 16:12 9,0 C 8,9 C 7,2 C 83 % 3 lf 1018,7 hPa 0,0 l/m 0 min 0 min 65 W/m 4,2 km/h (1 Bft) 91,49 %
30.04.2016 16:14 9,0 C 9,4 C 7,2 C 83 % 1 lf 1018,7 hPa 0,0 l/m 0 min 0 min 67 W/m 4,2 km/h (1 Bft) 97,87 %
30.04.2016 16:16 9,0 C 9,4 C 7,2 C 83 % 0 lf 1018,7 hPa 0,0 l/m 0 min 0 min 64 W/m 2,1 km/h (1 Bft) 97,87 %
30.04.2016 16:18 9,0 C 9,4 C 7,2 C 83 % 0 lf 1018,7 hPa 0,0 l/m 0 min 0 min 63 W/m 2,1 km/h (1 Bft) 97,87 %
30.04.2016 16:20 8,9 C 9,4 C 7,2 C 83 % 0 lf 1018,7 hPa 0,0 l/m 0 min 0 min 65 W/m 2,1 km/h (1 Bft) 95,65 %
30.04.2016 16:22 8,9 C 9,4 C 7,2 C 83 % 0 lf 1018,6 hPa 0,0 l/m 0 min 0 min 66 W/m 2,1 km/h (1 Bft) 97,87 %
30.04.2016 16:24 8,9 C 9,4 C 7,2 C 83 % 0 lf 1018,6 hPa 0,0 l/m 0 min 0 min 70 W/m 4,2 km/h (1 Bft) 97,87 %
30.04.2016 16:26 8,9 C 9,4 C 7,8 C 83 % 0 lf 1018,7 hPa 0,0 l/m 0 min 0 min 72 W/m 4,2 km/h (1 Bft) 93,62 %
30.04.2016 16:28 8,9 C 9,4 C 7,8 C 83 % 0 lf 1018,7 hPa 0,0 l/m 0 min 2 min 72 W/m 4,2 km/h (1 Bft) 95,74 %
30.04.2016 16:30 8,9 C 9,4 C 7,8 C 82 % 0 lf 1018,7 hPa 0,0 l/m 0 min 0 min 73 W/m 6,3 km/h (2 Bft) 93,62 %
30.04.2016 16:32 8,9 C 9,4 C 7,8 C 82 % 0 lf 1018,8 hPa 0,0 l/m 0 min 0 min 74 W/m 2,1 km/h (1 Bft) 93,48 %
30.04.2016 16:34 8,8 C 9,4 C 7,8 C 82 % 0 lf 1018,8 hPa 0,0 l/m 0 min 0 min 74 W/m 4,2 km/h (1 Bft) 95,74 %
30.04.2016 16:36 8,8 C 9,4 C 7,8 C 82 % 0 lf 1018,8 hPa 0,0 l/m 0 min 0 min 76 W/m 4,2 km/h (1 Bft) 95,74 %
30.04.2016 16:38 8,8 C 9,4 C 7,8 C 82 % 0 lf 1018,8 hPa 0,0 l/m 0 min 0 min 77 W/m 4,2 km/h (1 Bft) 93,62 %
30.04.2016 16:40 8,8 C 10,0 C 7,8 C 82 % 0 lf 1018,8 hPa 0,0 l/m 0 min 0 min 77 W/m 4,2 km/h (1 Bft) 95,74 %
30.04.2016 16:42 8,8 C 10,0 C 7,8 C 82 % 0 lf 1018,8 hPa 0,0 l/m 0 min 0 min 78 W/m 4,2 km/h (1 Bft) 91,49 %
30.04.2016 16:44 8,8 C 9,4 C 7,8 C 82 % 0 lf 1018,9 hPa 0,0 l/m 0 min 0 min 80 W/m 4,2 km/h (1 Bft) 93,48 %
30.04.2016 16:46 8,8 C 10,0 C 7,8 C 82 % 0 lf 1018,8 hPa 0,0 l/m 0 min 0 min 84 W/m 4,2 km/h (1 Bft) 91,49 %
30.04.2016 16:48 8,9 C 10,0 C 7,8 C 82 % 0 lf 1018,9 hPa 0,0 l/m 0 min 0 min 85 W/m 4,2 km/h (1 Bft) 93,62 %
30.04.2016 16:50 8,9 C 10,0 C 7,8 C 82 % 0 lf 1018,8 hPa 0,0 l/m 0 min 0 min 89 W/m 4,2 km/h (1 Bft) 95,74 %
30.04.2016 16:52 8,9 C 10,0 C 7,8 C 82 % 0 lf 1018,9 hPa 0,0 l/m 0 min 0 min 94 W/m 6,3 km/h (2 Bft) 95,74 %
30.04.2016 16:54 8,9 C 10,0 C 8,3 C 83 % 0 lf 1018,9 hPa 0,0 l/m 0 min 0 min 100 W/m 6,3 km/h (2 Bft) 97,87 %
30.04.2016 16:56 8,9 C 10,0 C 8,3 C 83 % 0 lf 1018,9 hPa 0,0 l/m 0 min 0 min 104 W/m 14,6 km/h (3 Bft) 95,65 %
30.04.2016 16:58 8,9 C 10,0 C 8,3 C 83 % 0 lf 1018,8 hPa 0,0 l/m 0 min 0 min 102 W/m 10,5 km/h (2 Bft) 97,87 %
30.04.2016 17:00 8,9 C 10,0 C 8,3 C 82 % 0 lf 1018,9 hPa 0,0 l/m 0 min 0 min 98 W/m 12,6 km/h (3 Bft) 97,87 %
30.04.2016 17:02 8,9 C 9,4 C 8,3 C 82 % 0 lf 1018,9 hPa 0,0 l/m 0 min 0 min 97 W/m 14,6 km/h (3 Bft) 100,00 %
30.04.2016 17:04 8,9 C 10,0 C 8,3 C 82 % 0 lf 1018,9 hPa 0,0 l/m 0 min 0 min 95 W/m 10,5 km/h (2 Bft) 97,87 %
30.04.2016 17:06 8,9 C 10,0 C 8,3 C 82 % 0 lf 1018,9 hPa 0,0 l/m 0 min 0 min 96 W/m 12,6 km/h (3 Bft) 100,00 %
30.04.2016 17:08 9,0 C 10,0 C 8,3 C 82 % 0 lf 1018,8 hPa 0,0 l/m 0 min 0 min 100 W/m 16,7 km/h (3 Bft) 100,00 %
30.04.2016 17:10 9,0 C 10,0 C 8,3 C 81 % 0 lf 1018,8 hPa 0,0 l/m 0 min 0 min 105 W/m 14,6 km/h (3 Bft) 100,00 %
30.04.2016 17:12 8,9 C 10,0 C 8,3 C 80 % 0 lf 1018,9 hPa 0,0 l/m 0 min 0 min 109 W/m 14,6 km/h (3 Bft) 100,00 %
30.04.2016 17:14 9,0 C 10,0 C 8,3 C 80 % 0 lf 1018,9 hPa 0,0 l/m 0 min 0 min 109 W/m 14,6 km/h (3 Bft) 97,87 %
30.04.2016 17:16 9,0 C 10,0 C 8,3 C 80 % 0 lf 1018,9 hPa 0,0 l/m 0 min 0 min 108 W/m 18,8 km/h (3 Bft) 100,00 %
30.04.2016 17:18 9,0 C 10,0 C 8,3 C 80 % 0 lf 1018,9 hPa 0,0 l/m 0 min 0 min 107 W/m 16,7 km/h (3 Bft) 95,74 %
30.04.2016 17:20 9,1 C 10,0 C 8,3 C 80 % 0 lf 1018,9 hPa 0,0 l/m 0 min 0 min 105 W/m 12,6 km/h (3 Bft) 100,00 %
30.04.2016 17:22 9,1 C 10,0 C 8,3 C 80 % 0 lf 1018,9 hPa 0,0 l/m 0 min 0 min 104 W/m 16,7 km/h (3 Bft) 100,00 %
30.04.2016 17:24 9,1 C 9,4 C 8,3 C 80 % 0 lf 1018,9 hPa 0,0 l/m 0 min 0 min 98 W/m 14,6 km/h (3 Bft) 100,00 %
30.04.2016 17:26 9,1 C 10,0 C 8,3 C 80 % 0 lf 1019,0 hPa 0,0 l/m 0 min 0 min 92 W/m 14,6 km/h (3 Bft) 97,87 %
30.04.2016 17:28 9,1 C 9,4 C 8,3 C 80 % 0 lf 1019,0 hPa 0,0 l/m 0 min 0 min 89 W/m 14,6 km/h (3 Bft) 95,74 %
30.04.2016 17:30 9,1 C 9,4 C 8,3 C 80 % 0 lf 1019,0 hPa 0,0 l/m 0 min 0 min 85 W/m 16,7 km/h (3 Bft) 100,00 %
30.04.2016 17:32 9,2 C 9,4 C 8,3 C 81 % 0 lf 1019,1 hPa 0,0 l/m 0 min 0 min 83 W/m 18,8 km/h (3 Bft) 100,00 %
30.04.2016 17:34 9,2 C 9,4 C 8,3 C 81 % 0 lf 1019,1 hPa 0,0 l/m 0 min 0 min 80 W/m 16,7 km/h (3 Bft) 100,00 %
30.04.2016 17:36 9,2 C 9,4 C 8,3 C 81 % 0 lf 1019,1 hPa 0,0 l/m 0 min 0 min 77 W/m 18,8 km/h (3 Bft) 100,00 %
30.04.2016 17:38 9,2 C 9,4 C 8,3 C 81 % 0 lf 1019,2 hPa 0,0 l/m 0 min 0 min 75 W/m 16,7 km/h (3 Bft) 100,00 %
30.04.2016 17:40 9,1 C 9,4 C 7,8 C 81 % 0 lf 1019,1 hPa 0,0 l/m 0 min 0 min 70 W/m 14,6 km/h (3 Bft) 100,00 %
30.04.2016 17:42 9,1 C 9,4 C 7,8 C 81 % 0 lf 1019,1 hPa 0,0 l/m 0 min 0 min 67 W/m 10,5 km/h (2 Bft) 100,00 %
30.04.2016 17:44 9,1 C 9,4 C 7,8 C 81 % 0 lf 1019,1 hPa 0,0 l/m 0 min 0 min 63 W/m 14,6 km/h (3 Bft) 97,87 %
30.04.2016 17:46 9,1 C 9,4 C 7,8 C 81 % 0 lf 1019,1 hPa 0,0 l/m 0 min 0 min 62 W/m 14,6 km/h (3 Bft) 95,74 %
30.04.2016 17:48 9,1 C 9,4 C 7,8 C 81 % 0 lf 1019,1 hPa 0,0 l/m 0 min 0 min 62 W/m 12,6 km/h (3 Bft) 100,00 %
30.04.2016 17:50 9,1 C 9,4 C 7,8 C 81 % 0 lf 1019,1 hPa 0,0 l/m 0 min 0 min 63 W/m 14,6 km/h (3 Bft) 97,87 %
30.04.2016 17:52 9,1 C 9,4 C 7,8 C 81 % 0 lf 1019,1 hPa 0,0 l/m 0 min 0 min 64 W/m 16,7 km/h (3 Bft) 97,87 %
30.04.2016 17:54 9,1 C 9,4 C 7,8 C 81 % 0 lf 1019,2 hPa 0,0 l/m 0 min 0 min 67 W/m 10,5 km/h (2 Bft) 97,83 %
30.04.2016 17:56 9,0 C 9,4 C 7,8 C 81 % 0 lf 1019,2 hPa 0,0 l/m 0 min 0 min 68 W/m 10,5 km/h (2 Bft) 97,87 %
30.04.2016 17:58 9,0 C 9,4 C 7,8 C 81 % 0 lf 1019,2 hPa 0,0 l/m 0 min 0 min 70 W/m 10,5 km/h (2 Bft) 97,87 %
30.04.2016 18:00 9,0 C 9,4 C 7,8 C 81 % 0 lf 1019,2 hPa 0,0 l/m 0 min 0 min 72 W/m 4,2 km/h (1 Bft) 95,74 %
30.04.2016 18:02 9,0 C 9,4 C 7,8 C 81 % 0 lf 1019,2 hPa 0,0 l/m 0 min 0 min 73 W/m 10,5 km/h (2 Bft) 93,62 %
30.04.2016 18:04 9,0 C 9,4 C 7,8 C 81 % 0 lf 1019,2 hPa 0,0 l/m 0 min 0 min 75 W/m 6,3 km/h (2 Bft) 89,58 %
30.04.2016 18:06 9,0 C 9,4 C 7,8 C 81 % 0 lf 1019,2 hPa 0,0 l/m 0 min 2 min 77 W/m 12,6 km/h (3 Bft) 95,65 %
30.04.2016 18:08 9,0 C 9,4 C 7,8 C 82 % 1 lf 1019,2 hPa 0,0 l/m 0 min 2 min 77 W/m 10,5 km/h (2 Bft) 95,74 %
30.04.2016 18:10 9,0 C 9,4 C 7,8 C 82 % 0 lf 1019,2 hPa 0,0 l/m 0 min 0 min 75 W/m 8,4 km/h (2 Bft) 93,62 %
30.04.2016 18:12 9,0 C 9,4 C 7,8 C 82 % 0 lf 1019,2 hPa 0,0 l/m 0 min 2 min 76 W/m 10,5 km/h (2 Bft) 91,49 %
30.04.2016 18:14 8,9 C 9,4 C 7,8 C 82 % 0 lf 1019,2 hPa 0,0 l/m 0 min 0 min 76 W/m 8,4 km/h (2 Bft) 89,36 %
30.04.2016 18:16 8,9 C 9,4 C 7,8 C 82 % 0 lf 1019,2 hPa 0,0 l/m 0 min 0 min 76 W/m 4,2 km/h (1 Bft) 93,62 %
30.04.2016 18:18 8,9 C 9,4 C 7,8 C 82 % 0 lf 1019,2 hPa 0,0 l/m 0 min 0 min 78 W/m 6,3 km/h (2 Bft) 95,65 %
30.04.2016 18:20 9,0 C 9,4 C 7,8 C 82 % 0 lf 1019,3 hPa 0,0 l/m 0 min 2 min 80 W/m 4,2 km/h (1 Bft) 95,74 %
30.04.2016 18:22 9,0 C 9,4 C 7,8 C 82 % 1 lf 1019,3 hPa 0,0 l/m 0 min 0 min 82 W/m 6,3 km/h (2 Bft) 93,62 %
30.04.2016 18:24 8,9 C 9,4 C 7,8 C 82 % 1 lf 1019,4 hPa 0,0 l/m 0 min 2 min 83 W/m 6,3 km/h (2 Bft) 95,74 %
30.04.2016 18:26 9,0 C 9,4 C 7,8 C 82 % 0 lf 1019,3 hPa 0,0 l/m 0 min 0 min 86 W/m 8,4 km/h (2 Bft) 93,62 %
30.04.2016 18:28 9,0 C 9,4 C 7,8 C 82 % 0 lf 1019,3 hPa 0,0 l/m 0 min 2 min 90 W/m 6,3 km/h (2 Bft) 93,62 %
30.04.2016 18:30 9,0 C 9,4 C 8,3 C 82 % 0 lf 1019,4 hPa 0,0 l/m 0 min 0 min 90 W/m 2,1 km/h (1 Bft) 89,13 %
30.04.2016 18:32 9,0 C 9,4 C 8,3 C 82 % 0 lf 1019,4 hPa 0,0 l/m 0 min 0 min 87 W/m 4,2 km/h (1 Bft) 93,62 %
30.04.2016 18:34 9,0 C 9,4 C 8,3 C 83 % 0 lf 1019,4 hPa 0,0 l/m 0 min 2 min 85 W/m 8,4 km/h (2 Bft) 93,62 %
30.04.2016 18:36 9,0 C 9,4 C 7,8 C 83 % 1 lf 1019,3 hPa 0,0 l/m 0 min 2 min 84 W/m 8,4 km/h (2 Bft) 89,36 %
30.04.2016 18:38 9,0 C 9,4 C 7,8 C 82 % 1 lf 1019,4 hPa 0,0 l/m 0 min 2 min 83 W/m 10,5 km/h (2 Bft) 91,49 %
30.04.2016 18:40 9,0 C 9,4 C 7,8 C 82 % 0 lf 1019,4 hPa 0,0 l/m 0 min 2 min 81 W/m 10,5 km/h (2 Bft) 93,62 %
30.04.2016 18:42 9,0 C 9,4 C 7,8 C 82 % 0 lf 1019,4 hPa 0,0 l/m 0 min 0 min 77 W/m 10,5 km/h (2 Bft) 91,30 %
30.04.2016 18:44 9,0 C 9,4 C 7,8 C 82 % 1 lf 1019,5 hPa 0,0 l/m 0 min 2 min 73 W/m 6,3 km/h (2 Bft) 93,62 %
30.04.2016 18:46 9,0 C 9,4 C 7,8 C 82 % 0 lf 1019,4 hPa 0,0 l/m 0 min 0 min 72 W/m 4,2 km/h (1 Bft) 89,36 %
30.04.2016 18:48 9,0 C 9,4 C 7,8 C 82 % 1 lf 1019,5 hPa 0,0 l/m 0 min 0 min 72 W/m 6,3 km/h (2 Bft) 91,49 %
30.04.2016 18:50 9,0 C 9,4 C 7,8 C 82 % 0 lf 1019,4 hPa 0,0 l/m 0 min 0 min 70 W/m 4,2 km/h (1 Bft) 91,49 %
30.04.2016 18:52 9,0 C 9,4 C 7,8 C 82 % 0 lf 1019,4 hPa 0,0 l/m 0 min 2 min 70 W/m 0,0 km/h (0 Bft) 89,36 %
30.04.2016 18:54 9,0 C 9,4 C 7,8 C 82 % 0 lf 1019,5 hPa 0,0 l/m 0 min 2 min 70 W/m 4,2 km/h (1 Bft) 89,13 %
30.04.2016 18:56 9,0 C 9,4 C 7,8 C 82 % 1 lf 1019,4 hPa 0,0 l/m 0 min 0 min 68 W/m 6,3 km/h (2 Bft) 89,36 %
30.04.2016 18:58 9,0 C 9,4 C 7,8 C 82 % 0 lf 1019,5 hPa 0,0 l/m 0 min 2 min 65 W/m 4,2 km/h (1 Bft) 95,74 %
30.04.2016 19:00 9,0 C 9,4 C 7,8 C 82 % 0 lf 1019,5 hPa 0,0 l/m 0 min 2 min 63 W/m 0,0 km/h (0 Bft) 93,62 %
30.04.2016 19:02 9,0 C 9,4 C 7,8 C 82 % 0 lf 1019,5 hPa 0,0 l/m 0 min 2 min 62 W/m 0,0 km/h (0 Bft) 91,49 %
30.04.2016 19:04 9,1 C 9,4 C 7,8 C 83 % 1 lf 1019,5 hPa 0,0 l/m 0 min 2 min 62 W/m 0,0 km/h (0 Bft) 95,65 %
30.04.2016 19:06 9,1 C 9,4 C 7,8 C 83 % 1 lf 1019,6 hPa 0,0 l/m 0 min 2 min 62 W/m 0,0 km/h (0 Bft) 95,74 %
30.04.2016 19:08 9,0 C 9,4 C 7,8 C 83 % 1 lf 1019,6 hPa 0,0 l/m 0 min 0 min 63 W/m 6,3 km/h (2 Bft) 95,74 %
30.04.2016 19:10 9,0 C 9,4 C 7,8 C 82 % 1 lf 1019,6 hPa 0,0 l/m 0 min 0 min 65 W/m 6,3 km/h (2 Bft) 95,74 %
30.04.2016 19:12 9,0 C 9,4 C 7,8 C 82 % 1 lf 1019,6 hPa 0,0 l/m 0 min 2 min 67 W/m 6,3 km/h (2 Bft) 95,74 %
30.04.2016 19:14 9,0 C 9,4 C 7,8 C 82 % 2 lf 1019,6 hPa 0,0 l/m 0 min 2 min 63 W/m 6,3 km/h (2 Bft) 93,62 %
30.04.2016 19:16 8,9 C 9,4 C 7,8 C 82 % 1 lf 1019,7 hPa 0,0 l/m 0 min 0 min 60 W/m 6,3 km/h (2 Bft) 97,83 %
30.04.2016 19:18 8,9 C 9,4 C 7,8 C 82 % 1 lf 1019,6 hPa 0,0 l/m 0 min 0 min 55 W/m 6,3 km/h (2 Bft) 97,87 %
30.04.2016 19:20 8,9 C 9,4 C 7,8 C 82 % 1 lf 1019,7 hPa 0,0 l/m 0 min 2 min 53 W/m 6,3 km/h (2 Bft) 95,74 %
30.04.2016 19:22 8,9 C 9,4 C 7,8 C 82 % 1 lf 1019,7 hPa 0,0 l/m 0 min 0 min 51 W/m 4,2 km/h (1 Bft) 95,74 %
30.04.2016 19:24 8,9 C 9,4 C 7,8 C 82 % 1 lf 1019,8 hPa 0,0 l/m 0 min 0 min 52 W/m 4,2 km/h (1 Bft) 97,87 %
30.04.2016 19:26 8,9 C 9,4 C 7,8 C 82 % 1 lf 1019,7 hPa 0,0 l/m 0 min 0 min 54 W/m 4,2 km/h (1 Bft) 97,87 %
30.04.2016 19:28 8,9 C 9,4 C 7,8 C 82 % 0 lf 1019,7 hPa 0,0 l/m 0 min 2 min 55 W/m 4,2 km/h (1 Bft) 93,48 %
30.04.2016 19:30 8,9 C 9,4 C 7,8 C 82 % 0 lf 1019,7 hPa 0,0 l/m 0 min 0 min 56 W/m 6,3 km/h (2 Bft) 97,87 %
30.04.2016 19:32 8,9 C 9,4 C 7,8 C 82 % 0 lf 1019,7 hPa 0,0 l/m 0 min 0 min 54 W/m 4,2 km/h (1 Bft) 97,87 %
30.04.2016 19:34 8,9 C 9,4 C 7,8 C 82 % 0 lf 1019,7 hPa 0,0 l/m 0 min 0 min 51 W/m 6,3 km/h (2 Bft) 100,00 %
30.04.2016 19:36 8,9 C 9,4 C 7,8 C 82 % 0 lf 1019,8 hPa 0,0 l/m 0 min 0 min 49 W/m 4,2 km/h (1 Bft) 100,00 %
30.04.2016 19:38 8,9 C 9,4 C 7,8 C 82 % 1 lf 1019,7 hPa 0,0 l/m 0 min 0 min 50 W/m 4,2 km/h (1 Bft) 97,87 %
30.04.2016 19:40 8,8 C 9,4 C 7,8 C 82 % 1 lf 1019,7 hPa 0,0 l/m 0 min 0 min 49 W/m 6,3 km/h (2 Bft) 97,87 %
30.04.2016 19:42 8,8 C 9,4 C 7,8 C 82 % 0 lf 1019,8 hPa 0,0 l/m 0 min 0 min 46 W/m 4,2 km/h (1 Bft) 100,00 %
30.04.2016 19:44 8,8 C 9,4 C 7,8 C 82 % 1 lf 1019,8 hPa 0,0 l/m 0 min 0 min 45 W/m 2,1 km/h (1 Bft) 97,87 %
30.04.2016 19:46 8,8 C 9,4 C 7,8 C 82 % 0 lf 1019,9 hPa 0,0 l/m 0 min 0 min 42 W/m 2,1 km/h (1 Bft) 95,74 %
30.04.2016 19:48 8,8 C 9,4 C 7,2 C 82 % 0 lf 1019,9 hPa 0,0 l/m 0 min 0 min 42 W/m 4,2 km/h (1 Bft) 100,00 %
30.04.2016 19:50 8,8 C 9,4 C 7,2 C 82 % 0 lf 1019,9 hPa 0,0 l/m 0 min 0 min 41 W/m 4,2 km/h (1 Bft) 100,00 %
30.04.2016 19:52 8,8 C 8,9 C 7,2 C 82 % 0 lf 1019,9 hPa 0,0 l/m 0 min 0 min 40 W/m 6,3 km/h (2 Bft) 100,00 %
30.04.2016 19:54 8,8 C 8,9 C 7,2 C 82 % 1 lf 1019,9 hPa 0,0 l/m 0 min 2 min 39 W/m 4,2 km/h (1 Bft) 100,00 %
30.04.2016 19:56 8,8 C 8,9 C 7,2 C 82 % 1 lf 1019,9 hPa 0,0 l/m 0 min 0 min 38 W/m 6,3 km/h (2 Bft) 100,00 %
30.04.2016 19:58 8,8 C 8,9 C 7,2 C 82 % 0 lf 1019,9 hPa 0,0 l/m 0 min 0 min 36 W/m 4,2 km/h (1 Bft) 100,00 %
30.04.2016 20:00 8,7 C 8,9 C 7,2 C 82 % 0 lf 1019,9 hPa 0,0 l/m 0 min 0 min 34 W/m 4,2 km/h (1 Bft) 100,00 %
30.04.2016 20:02 8,7 C 8,9 C 7,2 C 82 % 0 lf 1020,0 hPa 0,0 l/m 0 min 0 min 32 W/m 6,3 km/h (2 Bft) 100,00 %
30.04.2016 20:04 8,7 C 8,9 C 7,2 C 82 % 0 lf 1020,0 hPa 0,0 l/m 0 min 0 min 31 W/m 6,3 km/h (2 Bft) 97,87 %
30.04.2016 20:06 8,7 C 8,9 C 7,2 C 82 % 0 lf 1020,0 hPa 0,0 l/m 0 min 0 min 28 W/m 6,3 km/h (2 Bft) 97,83 %
30.04.2016 20:08 8,7 C 8,9 C 7,2 C 82 % 0 lf 1020,0 hPa 0,0 l/m 0 min 0 min 25 W/m 6,3 km/h (2 Bft) 100,00 %
30.04.2016 20:10 8,7 C 8,9 C 7,2 C 82 % 0 lf 1020,1 hPa 0,0 l/m 0 min 0 min 22 W/m 6,3 km/h (2 Bft) 97,92 %
30.04.2016 20:12 8,7 C 8,9 C 7,2 C 82 % 0 lf 1020,1 hPa 0,0 l/m 0 min 0 min 20 W/m 6,3 km/h (2 Bft) 100,00 %
30.04.2016 20:14 8,7 C 8,9 C 7,2 C 83 % 0 lf 1020,1 hPa 0,0 l/m 0 min 0 min 18 W/m 6,3 km/h (2 Bft) 97,87 %
30.04.2016 20:16 8,7 C 8,9 C 7,2 C 83 % 0 lf 1020,1 hPa 0,0 l/m 0 min 0 min 16 W/m 6,3 km/h (2 Bft) 100,00 %
30.04.2016 20:18 8,7 C 8,9 C 7,2 C 83 % 0 lf 1020,1 hPa 0,0 l/m 0 min 0 min 16 W/m 8,4 km/h (2 Bft) 100,00 %
30.04.2016 20:20 8,7 C 8,3 C 7,2 C 83 % 0 lf 1020,1 hPa 0,0 l/m 0 min 0 min 14 W/m 6,3 km/h (2 Bft) 95,83 %
30.04.2016 20:22 8,7 C 8,3 C 7,2 C 83 % 0 lf 1020,2 hPa 0,0 l/m 0 min 0 min 14 W/m 8,4 km/h (2 Bft) 97,87 %
30.04.2016 20:24 8,7 C 8,3 C 7,2 C 83 % 0 lf 1020,2 hPa 0,0 l/m 0 min 0 min 12 W/m 4,2 km/h (1 Bft) 95,65 %
30.04.2016 20:26 8,7 C 8,3 C 7,2 C 84 % 0 lf 1020,2 hPa 0,0 l/m 0 min 0 min 12 W/m 6,3 km/h (2 Bft) 97,87 %
30.04.2016 20:28 8,7 C 8,3 C 7,2 C 84 % 0 lf 1020,2 hPa 0,0 l/m 0 min 0 min 11 W/m 8,4 km/h (2 Bft) 96,36 %
30.04.2016 20:30 8,7 C 8,3 C 7,2 C 84 % 0 lf 1020,2 hPa 0,0 l/m 0 min 0 min 9 W/m 8,4 km/h (2 Bft) 92,11 %
30.04.2016 20:32 8,7 C 8,3 C 7,2 C 84 % 0 lf 1020,2 hPa 0,0 l/m 0 min 0 min 7 W/m 6,3 km/h (2 Bft) 97,92 %
30.04.2016 20:34 8,7 C 8,3 C 7,2 C 84 % 0 lf 1020,2 hPa 0,0 l/m 0 min 0 min 7 W/m 6,3 km/h (2 Bft) 95,74 %
30.04.2016 20:36 8,7 C 8,3 C 7,2 C 84 % 0 lf 1020,2 hPa 0,0 l/m 0 min 0 min 6 W/m 6,3 km/h (2 Bft) 94,55 %
30.04.2016 20:38 8,7 C 8,3 C 7,2 C 84 % 0 lf 1020,3 hPa 0,0 l/m 0 min 0 min 5 W/m 8,4 km/h (2 Bft) 95,65 %
30.04.2016 20:40 8,7 C 8,3 C 7,2 C 85 % 1 lf 1020,3 hPa 0,0 l/m 0 min 0 min 5 W/m 6,3 km/h (2 Bft) 100,00 %
30.04.2016 20:42 8,7 C 8,3 C 6,7 C 85 % 1 lf 1020,3 hPa 0,0 l/m 0 min 0 min 5 W/m 10,5 km/h (2 Bft) 97,87 %
30.04.2016 20:44 8,7 C 8,3 C 6,7 C 85 % 0 lf 1020,2 hPa 0,0 l/m 0 min 0 min 5 W/m 6,3 km/h (2 Bft) 95,74 %
30.04.2016 20:46 8,7 C 8,3 C 6,7 C 85 % 0 lf 1020,2 hPa 0,0 l/m 0 min 0 min 5 W/m 6,3 km/h (2 Bft) 95,74 %
30.04.2016 20:48 8,6 C 8,3 C 6,7 C 85 % 0 lf 1020,3 hPa 0,0 l/m 0 min 0 min 1 W/m 10,5 km/h (2 Bft) 96,36 %
30.04.2016 20:50 8,6 C 8,3 C 6,7 C 85 % 0 lf 1020,3 hPa 0,0 l/m 0 min 0 min 0 W/m 8,4 km/h (2 Bft) 97,37 %
30.04.2016 20:52 8,6 C 8,3 C 6,7 C 85 % 0 lf 1020,3 hPa 0,0 l/m 0 min 0 min 0 W/m 8,4 km/h (2 Bft) 100,00 %
30.04.2016 20:54 8,6 C 8,3 C 6,7 C 85 % 0 lf 1020,3 hPa 0,0 l/m 0 min 0 min 0 W/m 8,4 km/h (2 Bft) 95,74 %
30.04.2016 20:56 8,6 C 8,3 C 6,7 C 85 % 0 lf 1020,4 hPa 0,0 l/m 0 min 0 min 0 W/m 6,3 km/h (2 Bft) 100,00 %
30.04.2016 20:58 8,5 C 8,3 C 6,7 C 86 % 0 lf 1020,5 hPa 0,0 l/m 0 min 0 min 0 W/m 8,4 km/h (2 Bft) 95,74 %
30.04.2016 21:00 8,5 C 7,8 C 6,7 C 85 % 0 lf 1020,5 hPa 0,0 l/m 0 min 0 min 0 W/m 10,5 km/h (2 Bft) 100,00 %
30.04.2016 21:02 8,5 C 7,8 C 6,7 C 86 % 0 lf 1020,5 hPa 0,0 l/m 0 min 0 min 0 W/m 8,4 km/h (2 Bft) 100,00 %
30.04.2016 21:04 8,5 C 7,8 C 6,7 C 86 % 0 lf 1020,6 hPa 0,0 l/m 0 min 0 min 0 W/m 6,3 km/h (2 Bft) 100,00 %
30.04.2016 21:06 8,4 C 7,8 C 6,7 C 86 % 0 lf 1020,6 hPa 0,0 l/m 0 min 0 min 0 W/m 8,4 km/h (2 Bft) 97,87 %
30.04.2016 21:08 8,4 C 7,8 C 6,7 C 86 % 0 lf 1020,7 hPa 0,0 l/m 0 min 0 min 0 W/m 10,5 km/h (2 Bft) 95,74 %
30.04.2016 21:10 8,4 C 7,8 C 6,7 C 86 % 0 lf 1020,7 hPa 0,0 l/m 0 min 0 min 0 W/m 6,3 km/h (2 Bft) 95,74 %
30.04.2016 21:12 8,4 C 7,8 C 6,7 C 86 % 0 lf 1020,7 hPa 0,0 l/m 0 min 0 min 0 W/m 6,3 km/h (2 Bft) 97,87 %
30.04.2016 21:14 8,4 C 7,8 C 6,7 C 86 % 0 lf 1020,7 hPa 0,0 l/m 0 min 0 min 0 W/m 8,4 km/h (2 Bft) 93,62 %
30.04.2016 21:16 8,4 C 7,8 C 6,7 C 86 % 0 lf 1020,7 hPa 0,0 l/m 0 min 0 min 0 W/m 10,5 km/h (2 Bft) 95,65 %
30.04.2016 21:18 8,4 C 7,8 C 6,7 C 86 % 0 lf 1020,8 hPa 0,0 l/m 0 min 0 min 0 W/m 8,4 km/h (2 Bft) 97,87 %
30.04.2016 21:20 8,3 C 7,8 C 6,7 C 86 % 0 lf 1020,8 hPa 0,0 l/m 0 min 0 min 0 W/m 10,5 km/h (2 Bft) 97,87 %
30.04.2016 21:22 8,3 C 7,8 C 6,7 C 87 % 0 lf 1020,8 hPa 0,0 l/m 0 min 0 min 0 W/m 8,4 km/h (2 Bft) 95,74 %
30.04.2016 21:24 8,3 C 7,8 C 6,7 C 87 % 0 lf 1020,8 hPa 0,0 l/m 0 min 0 min 0 W/m 10,5 km/h (2 Bft) 93,62 %
30.04.2016 21:26 8,3 C 7,8 C 6,7 C 87 % 1 lf 1020,8 hPa 0,0 l/m 0 min 0 min 0 W/m 6,3 km/h (2 Bft) 95,74 %
30.04.2016 21:28 8,3 C 7,8 C 6,7 C 87 % 1 lf 1020,8 hPa 0,0 l/m 0 min 0 min 0 W/m 6,3 km/h (2 Bft) 93,48 %
30.04.2016 21:30 8,3 C 7,8 C 6,7 C 87 % 0 lf 1020,8 hPa 0,0 l/m 0 min 0 min 0 W/m 6,3 km/h (2 Bft) 91,49 %
30.04.2016 21:32 8,3 C 7,8 C 6,7 C 87 % 0 lf 1020,9 hPa 0,0 l/m 0 min 0 min 0 W/m 10,5 km/h (2 Bft) 93,62 %
30.04.2016 21:34 8,3 C 7,8 C 6,7 C 87 % 0 lf 1020,9 hPa 0,0 l/m 0 min 0 min 0 W/m 6,3 km/h (2 Bft) 95,74 %
30.04.2016 21:36 8,3 C 7,8 C 6,7 C 87 % 0 lf 1020,9 hPa 0,0 l/m 0 min 0 min 0 W/m 10,5 km/h (2 Bft) 93,62 %
30.04.2016 21:38 8,3 C 8,3 C 6,7 C 87 % 0 lf 1020,9 hPa 0,0 l/m 0 min 0 min 0 W/m 10,5 km/h (2 Bft) 95,65 %
30.04.2016 21:40 8,3 C 8,3 C 6,7 C 88 % 0 lf 1020,9 hPa 0,0 l/m 0 min 0 min 0 W/m 10,5 km/h (2 Bft) 97,87 %
30.04.2016 21:42 8,3 C 8,3 C 7,2 C 88 % 0 lf 1020,9 hPa 0,0 l/m 0 min 0 min 0 W/m 14,6 km/h (3 Bft) 93,62 %
30.04.2016 21:44 8,2 C 8,3 C 7,2 C 88 % 0 lf 1020,9 hPa 0,0 l/m 0 min 0 min 0 W/m 12,6 km/h (3 Bft) 89,36 %
30.04.2016 21:46 8,2 C 8,3 C 7,2 C 88 % 0 lf 1021,0 hPa 0,0 l/m 0 min 0 min 0 W/m 12,6 km/h (3 Bft) 95,74 %
30.04.2016 21:48 8,2 C 8,3 C 7,2 C 87 % 0 lf 1021,0 hPa 0,0 l/m 0 min 0 min 0 W/m 14,6 km/h (3 Bft) 91,49 %
30.04.2016 21:50 8,2 C 8,3 C 7,2 C 87 % 0 lf 1021,0 hPa 0,0 l/m 0 min 0 min 0 W/m 14,6 km/h (3 Bft) 95,74 %
30.04.2016 21:52 8,2 C 8,3 C 7,2 C 87 % 0 lf 1021,0 hPa 0,0 l/m 0 min 0 min 0 W/m 12,6 km/h (3 Bft) 95,65 %
30.04.2016 21:54 8,2 C 8,3 C 7,2 C 87 % 0 lf 1021,0 hPa 0,0 l/m 0 min 0 min 0 W/m 12,6 km/h (3 Bft) 95,74 %
30.04.2016 21:56 8,2 C 8,3 C 7,2 C 87 % 0 lf 1021,0 hPa 0,0 l/m 0 min 0 min 0 W/m 12,6 km/h (3 Bft) 93,62 %
30.04.2016 21:58 8,2 C 8,3 C 7,2 C 87 % 0 lf 1021,0 hPa 0,0 l/m 0 min 0 min 0 W/m 16,7 km/h (3 Bft) 95,74 %
30.04.2016 22:00 8,2 C 8,3 C 7,2 C 86 % 0 lf 1021,0 hPa 0,0 l/m 0 min 0 min 0 W/m 12,6 km/h (3 Bft) 95,74 %
30.04.2016 22:02 8,2 C 8,3 C 7,2 C 86 % 0 lf 1021,0 hPa 0,0 l/m 0 min 0 min 0 W/m 14,6 km/h (3 Bft) 86,96 %
30.04.2016 22:04 8,2 C 8,3 C 7,2 C 86 % 0 lf 1021,0 hPa 0,0 l/m 0 min 0 min 0 W/m 16,7 km/h (3 Bft) 93,62 %
30.04.2016 22:06 8,2 C 8,3 C 7,2 C 85 % 0 lf 1021,0 hPa 0,0 l/m 0 min 0 min 0 W/m 20,9 km/h (4 Bft) 97,87 %
30.04.2016 22:08 8,1 C 8,3 C 7,2 C 85 % 0 lf 1021,0 hPa 0,0 l/m 0 min 0 min 0 W/m 16,7 km/h (3 Bft) 97,87 %
30.04.2016 22:10 8,2 C 8,3 C 7,2 C 84 % 0 lf 1021,0 hPa 0,0 l/m 0 min 0 min 0 W/m 20,9 km/h (4 Bft) 95,74 %
30.04.2016 22:12 8,2 C 8,3 C 7,2 C 84 % 0 lf 1021,0 hPa 0,0 l/m 0 min 0 min 0 W/m 20,9 km/h (4 Bft) 93,62 %
30.04.2016 22:14 8,2 C 8,3 C 7,2 C 83 % 0 lf 1021,0 hPa 0,2 l/m 0 min 0 min 0 W/m 23,0 km/h (4 Bft) 91,30 %
30.04.2016 22:16 8,2 C 8,3 C 7,2 C 82 % 0 lf 1021,1 hPa 0,0 l/m 0 min 0 min 0 W/m 20,9 km/h (4 Bft) 93,62 %
30.04.2016 22:18 8,2 C 8,3 C 7,2 C 82 % 0 lf 1021,1 hPa 0,0 l/m 0 min 0 min 0 W/m 20,9 km/h (4 Bft) 91,49 %
30.04.2016 22:20 8,2 C 8,3 C 7,2 C 81 % 0 lf 1021,1 hPa 0,0 l/m 0 min 0 min 0 W/m 18,8 km/h (3 Bft) 95,74 %
30.04.2016 22:22 8,2 C 8,3 C 7,2 C 81 % 0 lf 1021,1 hPa 0,0 l/m 0 min 0 min 0 W/m 16,7 km/h (3 Bft) 93,62 %
30.04.2016 22:24 8,2 C 8,3 C 7,2 C 80 % 0 lf 1021,2 hPa 0,0 l/m 0 min 0 min 0 W/m 23,0 km/h (4 Bft) 97,87 %
30.04.2016 22:26 8,2 C 8,3 C 7,2 C 80 % 0 lf 1021,2 hPa 0,0 l/m 0 min 0 min 0 W/m 18,8 km/h (3 Bft) 89,13 %
30.04.2016 22:28 8,2 C 8,3 C 7,2 C 80 % 0 lf 1021,3 hPa 0,0 l/m 0 min 0 min 0 W/m 18,8 km/h (3 Bft) 93,62 %
30.04.2016 22:30 8,2 C 8,3 C 7,2 C 80 % 0 lf 1021,3 hPa 0,0 l/m 0 min 0 min 0 W/m 18,8 km/h (3 Bft) 93,62 %
30.04.2016 22:32 8,2 C 8,3 C 7,2 C 79 % 0 lf 1021,4 hPa 0,0 l/m 0 min 0 min 0 W/m 12,6 km/h (3 Bft) 95,74 %
30.04.2016 22:34 8,2 C 8,3 C 6,7 C 79 % 0 lf 1021,4 hPa 0,0 l/m 0 min 0 min 0 W/m 18,8 km/h (3 Bft) 95,74 %
30.04.2016 22:36 8,2 C 8,3 C 6,7 C 79 % 0 lf 1021,4 hPa 0,0 l/m 0 min 0 min 0 W/m 16,7 km/h (3 Bft) 95,74 %
30.04.2016 22:38 8,2 C 8,3 C 6,7 C 79 % 0 lf 1021,3 hPa 0,0 l/m 0 min 0 min 0 W/m 14,6 km/h (3 Bft) 95,65 %
30.04.2016 22:40 8,2 C 8,3 C 6,7 C 79 % 0 lf 1021,4 hPa 0,0 l/m 0 min 0 min 0 W/m 20,9 km/h (4 Bft) 95,74 %
30.04.2016 22:42 8,2 C 8,3 C 6,7 C 79 % 0 lf 1021,4 hPa 0,0 l/m 0 min 0 min 0 W/m 18,8 km/h (3 Bft) 95,74 %
30.04.2016 22:44 8,2 C 8,3 C 6,7 C 79 % 0 lf 1021,5 hPa 0,0 l/m 0 min 0 min 0 W/m 16,7 km/h (3 Bft) 93,62 %
30.04.2016 22:46 8,2 C 8,3 C 6,7 C 79 % 0 lf 1021,4 hPa 0,0 l/m 0 min 0 min 0 W/m 20,9 km/h (4 Bft) 97,87 %
30.04.2016 22:48 8,2 C 8,3 C 6,7 C 79 % 0 lf 1021,5 hPa 0,0 l/m 0 min 0 min 0 W/m 18,8 km/h (3 Bft) 97,83 %
30.04.2016 22:50 8,1 C 8,3 C 6,7 C 79 % 0 lf 1021,5 hPa 0,0 l/m 0 min 0 min 0 W/m 27,2 km/h (4 Bft) 93,62 %
30.04.2016 22:52 8,1 C 8,3 C 6,7 C 79 % 0 lf 1021,5 hPa 0,0 l/m 0 min 0 min 0 W/m 16,7 km/h (3 Bft) 91,49 %
30.04.2016 22:54 8,1 C 8,3 C 6,7 C 78 % 0 lf 1021,4 hPa 0,0 l/m 0 min 0 min 0 W/m 23,0 km/h (4 Bft) 97,87 %
30.04.2016 22:56 8,1 C 7,8 C 6,7 C 78 % 0 lf 1021,4 hPa 0,0 l/m 0 min 0 min 0 W/m 25,1 km/h (4 Bft) 97,87 %
30.04.2016 22:58 8,1 C 7,8 C 6,7 C 78 % 0 lf 1021,5 hPa 0,0 l/m 0 min 0 min 0 W/m 18,8 km/h (3 Bft) 93,62 %
30.04.2016 23:00 8,1 C 7,8 C 6,7 C 78 % 0 lf 1021,5 hPa 0,0 l/m 0 min 0 min 0 W/m 18,8 km/h (3 Bft) 97,83 %
30.04.2016 23:02 8,1 C 7,8 C 6,7 C 79 % 0 lf 1021,5 hPa 0,0 l/m 0 min 0 min 0 W/m 18,8 km/h (3 Bft) 97,87 %
30.04.2016 23:04 8,0 C 7,8 C 6,7 C 79 % 0 lf 1021,5 hPa 0,0 l/m 0 min 0 min 0 W/m 16,7 km/h (3 Bft) 97,87 %
30.04.2016 23:06 8,0 C 7,8 C 6,7 C 79 % 0 lf 1021,6 hPa 0,0 l/m 0 min 0 min 0 W/m 20,9 km/h (4 Bft) 97,87 %
30.04.2016 23:08 7,9 C 7,8 C 6,7 C 79 % 0 lf 1021,5 hPa 0,0 l/m 0 min 0 min 0 W/m 16,7 km/h (3 Bft) 97,87 %
30.04.2016 23:10 7,9 C 7,8 C 6,1 C 79 % 0 lf 1021,6 hPa 0,0 l/m 0 min 0 min 0 W/m 20,9 km/h (4 Bft) 100,00 %
30.04.2016 23:12 7,9 C 7,8 C 6,1 C 79 % 0 lf 1021,6 hPa 0,0 l/m 0 min 0 min 0 W/m 18,8 km/h (3 Bft) 100,00 %
30.04.2016 23:14 7,9 C 7,8 C 6,1 C 79 % 0 lf 1021,6 hPa 0,0 l/m 0 min 0 min 0 W/m 16,7 km/h (3 Bft) 100,00 %
30.04.2016 23:16 7,9 C 7,8 C 6,1 C 79 % 0 lf 1021,7 hPa 0,0 l/m 0 min 0 min 0 W/m 14,6 km/h (3 Bft) 97,87 %
30.04.2016 23:18 7,8 C 7,2 C 6,1 C 79 % 0 lf 1021,8 hPa 0,0 l/m 0 min 0 min 0 W/m 20,9 km/h (4 Bft) 100,00 %
30.04.2016 23:20 7,8 C 7,2 C 6,1 C 80 % 0 lf 1021,8 hPa 0,0 l/m 0 min 0 min 0 W/m 16,7 km/h (3 Bft) 100,00 %
30.04.2016 23:22 7,8 C 7,2 C 6,1 C 80 % 0 lf 1021,8 hPa 0,0 l/m 0 min 0 min 0 W/m 18,8 km/h (3 Bft) 100,00 %
30.04.2016 23:24 7,7 C 7,2 C 6,1 C 80 % 0 lf 1021,7 hPa 0,0 l/m 0 min 0 min 0 W/m 20,9 km/h (4 Bft) 100,00 %
30.04.2016 23:26 7,7 C 7,2 C 6,1 C 80 % 0 lf 1021,8 hPa 0,0 l/m 0 min 0 min 0 W/m 25,1 km/h (4 Bft) 97,87 %
30.04.2016 23:28 7,7 C 7,2 C 6,1 C 80 % 0 lf 1021,8 hPa 0,0 l/m 0 min 0 min 0 W/m 25,1 km/h (4 Bft) 100,00 %
30.04.2016 23:30 7,7 C 7,2 C 6,1 C 80 % 0 lf 1021,8 hPa 0,0 l/m 0 min 0 min 0 W/m 20,9 km/h (4 Bft) 100,00 %
30.04.2016 23:32 7,7 C 7,2 C 6,1 C 80 % 0 lf 1021,9 hPa 0,0 l/m 0 min 0 min 0 W/m 23,0 km/h (4 Bft) 100,00 %
30.04.2016 23:34 7,6 C 7,2 C 6,1 C 81 % 0 lf 1021,9 hPa 0,0 l/m 0 min 0 min 0 W/m 18,8 km/h (3 Bft) 100,00 %
30.04.2016 23:36 7,6 C 7,2 C 6,1 C 81 % 0 lf 1021,9 hPa 0,0 l/m 0 min 0 min 0 W/m 18,8 km/h (3 Bft) 100,00 %
30.04.2016 23:38 7,6 C 7,2 C 6,1 C 81 % 0 lf 1022,0 hPa 0,0 l/m 0 min 0 min 0 W/m 23,0 km/h (4 Bft) 97,87 %
30.04.2016 23:40 7,6 C 7,2 C 6,1 C 81 % 0 lf 1021,9 hPa 0,0 l/m 0 min 0 min 0 W/m 25,1 km/h (4 Bft) 97,87 %
30.04.2016 23:42 7,5 C 7,2 C 6,1 C 81 % 0 lf 1021,9 hPa 0,0 l/m 0 min 0 min 0 W/m 18,8 km/h (3 Bft) 95,74 %
30.04.2016 23:44 7,5 C 7,2 C 6,1 C 81 % 0 lf 1021,9 hPa 0,0 l/m 0 min 0 min 0 W/m 18,8 km/h (3 Bft) 95,74 %
30.04.2016 23:46 7,4 C 7,2 C 6,1 C 82 % 0 lf 1022,0 hPa 0,0 l/m 0 min 0 min 0 W/m 18,8 km/h (3 Bft) 97,87 %
30.04.2016 23:48 7,4 C 7,2 C 6,1 C 82 % 0 lf 1022,0 hPa 0,0 l/m 0 min 0 min 0 W/m 16,7 km/h (3 Bft) 97,83 %
30.04.2016 23:50 7,4 C 7,2 C 6,1 C 82 % 0 lf 1022,0 hPa 0,0 l/m 0 min 0 min 0 W/m 16,7 km/h (3 Bft) 93,62 %
30.04.2016 23:52 7,4 C 7,2 C 6,1 C 82 % 0 lf 1022,1 hPa 0,0 l/m 0 min 0 min 0 W/m 16,7 km/h (3 Bft) 100,00 %
30.04.2016 23:54 7,4 C 7,2 C 6,1 C 82 % 0 lf 1022,2 hPa 0,0 l/m 0 min 0 min 0 W/m 23,0 km/h (4 Bft) 95,74 %
30.04.2016 23:56 7,4 C 7,2 C 6,1 C 82 % 0 lf 1022,2 hPa 0,0 l/m 0 min 0 min 0 W/m 20,9 km/h (4 Bft) 95,74 %
30.04.2016 23:58 7,3 C 7,2 C 6,1 C 82 % 0 lf 1022,2 hPa 0,0 l/m 0 min 0 min 0 W/m 18,8 km/h (3 Bft) 97,83 %
_ Min-Zeit 08:22 04:46 08:14 13:34 00:36 00:22 - - - - 03:28 00:02
Minimum _ 5,9 C 5,6 C 4,4 C 75 % 0 lf 1014,5 hPa - - - - 0,0 km/h (0 Bft) 5,88 %
_ Max-Zeit 14:44 13:20 14:24 08:00 01:54 23:54 09:26 10:00 01:28 12:52 22:50 00:09
Maximum _ 10,8 C 16,7 C 11,7 C 96 % 15 lf 1022,2 hPa 0,2 l/m 2 min 2 min 538 W/m 27,2 km/h
NO (4 Bft)
100,00 %
Durchschnitt _ 7,9 C 8,6 C 6,7 C 88 % 6 lf 1017,8 hPa #0,4 l/m #1:36 h #11:15 h 168 W/m 7,5 km/h (2 Bft) 96,03 %
© 2016 W. Hausmann